GFSCGP_con_mucape_033.txt.gz
CAPE
117 62 27 2 0 0 0 0 9 17 3 4 7 0 0 111 193 274 398 525 497 469 538 582 439 321 576 987 1010 953 955 537 237 240 59 27 33 4 0 0 0 0 0 0
35 15 0 0 0 0 0 0 15 0 0 27 0 6 53 115 200 236 289 426 520 586 695 675 706 824 877 1084 1087 892 771 597 442 464 182 50 7 3 1 0 0 0 0 0
10 19 5 0 0 0 1 6 18 20 7 12 103 77 74 147 327 367 391 388 456 593 762 837 826 953 1002 811 831 857 721 633 639 312 68 51 63 28 0 0 0 0 0 0
6 31 1 0 0 6 39 44 48 78 59 19 80 28 24 194 259 354 462 554 549 641 808 995 1070 893 868 990 916 1047 931 721 255 43 33 57 52 18 28 9 1 0 0 0
32 44 2 16 68 63 50 43 110 122 74 17 104 84 32 278 207 259 360 499 645 801 872 947 1015 1123 1211 1103 950 816 449 60 4 23 37 66 32 41 18 2 0 0 0 2
30 88 153 96 86 90 82 118 142 153 119 175 94 96 149 339 236 273 406 539 721 876 963 924 761 544 372 487 617 439 4 3 0 0 4 10 7 0 0 4 0 0 0 0
74 128 107 103 133 134 137 172 205 111 157 162 102 77 52 78 129 249 562 680 807 735 579 207 16 0 0 17 100 60 1 0 0 0 0 0 0 0 2 11 0 0 0 0
137 164 112 99 181 183 134 103 205 73 57 75 103 3 92 53 14 181 509 447 625 393 141 0 0 0 0 0 0 0 0 1 0 0 0 0 0 2 6 0 0 0 0 0
136 49 43 47 84 52 96 55 102 115 154 26 0 29 143 37 21 86 434 297 385 128 0 0 0 0 0 0 0 0 2 4 0 0 0 0 0 2 0 0 0 0 0 0
128 127 27 7 27 27 60 35 22 11 4 0 32 0 136 31 0 47 371 299 223 59 0 0 0 0 0 0 2 3 2 0 0 0 0 0 2 0 0 0 0 0 0 0
127 64 123 0 6 55 67 9 0 20 19 0 0 21 0 0 0 5 154 283 140 78 0 1 0 0 0 0 0 0 0 0 1 1 1 0 1 0 0 0 0 0 0 0
115 96 168 94 0 1 14 34 14 0 0 0 15 0 0 0 0 0 21 145 136 73 8 6 3 0 1 0 0 0 3 8 7 5 3 0 0 0 0 0 0 0 0 0
88 0 53 56 11 1 0 0 0 0 0 0 98 0 0 0 0 0 0 13 76 66 30 11 6 2 1 0 2 5 11 11 11 11 2 0 0 0 0 0 0 0 0 0
0 0 30 110 72 24 0 0 0 0 0 0 0 0 0 0 0 0 0 0 2 26 29 6 5 3 0 0 2 11 11 11 15 17 12 0 0 0 0 0 0 0 0 0
5 5 1 0 0 0 0 0 0 0 0 5 0 0 0 0 0 0 0 0 0 0 0 0 0 2 0 0 9 24 8 11 17 16 0 0 0 0 0 0 0 0 0 1
0 0 0 0 0 0 0 0 0 0 0 0 0 0 0 0 0 0 0 0 0 0 0 0 0 0 0 0 0 0 4 17 24 18 0 0 0 0 0 0 0 0 0 2
23 0 0 0 0 0 0 0 0 0 0 0 0 0 0 0 0 0 0 0 0 0 0 0 0 0 0 0 0 0 12 23 29 4 0 0 0 0 0 0 0 0 1 6
0 0 0 0 0 0 0 0 0 0 0 0 0 0 0 0 0 0 0 0 0 0 0 0 0 0 0 0 0 3 9 22 8 1 0 0 0 0 0 0 0 2 6 12
0 0 0 0 0 0 0 0 0 0 0 0 0 0 0 0 0 0 0 0 0 0 0 0 0 0 0 0 0 7 26 23 17 3 0 0 0 0 0 0 0 3 9 13
0 0 0 0 0 0 0 0 0 0 0 0 0 0 0 0 0 0 0 0 0 0 0 0 0 0 0 0 9 24 26 27 14 0 0 0 0 0 0 0 1 5 9 13
0 0 0 0 3 0 0 0 0 0 0 0 0 0 0 0 0 0 0 0 0 0 0 0 0 0 0 2 2 16 13 1 0 0 0 0 0 0 0 0 0 4 13 20
0 3 0 0 0 0 0 0 0 0 0 0 0 0 0 0 0 0 0 0 0 0 0 0 3 4 2 7 16 0 0 0 0 0 0 0 0 0 0 0 2 9 18 24
0 4 0 0 2 0 0 0 0 0 0 0 0 0 0 0 0 1 0 0 0 0 0 0 0 8 14 2 1 0 0 0 0 0 0 0 0 0 0 0 8 13 14 19
0 0 0 0 0 0 0 0 0 0 0 0 0 0 0 0 1 11 0 0 0 0 0 1 12 13 16 0 0 0 0 0 0 0 0 0 0 0 0 2 11 8 0 23
0 0 0 0 0 0 0 0 0 0 0 0 0 2 0 0 1 5 0 0 0 0 3 7 14 13 0 0 0 0 0 0 0 0 0 0 0 1 4 7 12 7 0 0
0 0 0 2 0 0 0 3 0 0 0 0 0 0 0 0 0 0 0 1 5 2 2 1 10 3 0 0 0 0 0 0 0 0 0 0 0 1 8 0 0 0 0 0

GFSCGP_con_mucape_036.txt.gz
CAPE
44 59 61 43 17 0 0 0 0 1 0 0 22 11 0 3 61 317 365 389 367 248 204 243 244 219 319 872 747 709 527 293 60 99 96 30 3 0 0 0 0 0 0 0
217 51 0 0 0 2 0 1 2 0 0 0 3 4 0 2 32 155 352 403 427 333 340 544 464 385 649 1013 904 691 530 283 218 312 216 82 2 0 0 0 0 0 0 0
38 11 1 0 0 0 0 0 3 20 0 0 19 0 4 1 1 23 210 336 421 469 615 656 607 796 1006 1139 845 702 762 670 346 354 84 6 0 0 0 0 0 0 0 0
1 1 0 0 0 0 1 9 15 37 7 0 8 43 0 8 30 57 118 190 322 418 657 739 769 788 996 1076 837 796 559 625 663 315 11 0 0 0 0 0 0 0 0 0
48 0 15 0 0 24 12 12 28 4 19 47 0 1 6 0 79 196 328 354 325 381 553 775 900 1030 838 700 691 669 719 693 317 56 2 28 84 25 3 0 3 7 0 0
1 0 0 8 10 15 66 41 27 50 63 25 15 31 3 0 9 81 301 418 488 597 851 901 1004 901 875 840 886 943 597 164 48 0 12 39 27 0 0 0 0 0 0 0
0 7 79 35 73 22 0 37 220 28 75 216 82 73 92 55 34 26 215 354 501 786 798 823 830 876 897 854 885 419 163 1 0 0 0 0 0 0 0 0 0 0 0 0
2 100 92 31 31 46 39 0 270 71 0 208 52 74 120 60 15 209 453 574 707 803 888 774 547 341 284 353 435 209 0 0 0 0 0 0 0 0 0 0 5 0 0 0
138 54 0 29 16 8 18 27 29 130 268 490 7 0 161 40 0 41 494 488 679 587 510 182 22 0 0 8 37 0 0 0 0 0 0 0 0 0 0 0 2 0 0 0
58 2 0 36 6 16 3 2 146 40 41 18 2 22 166 45 1 22 448 455 531 443 279 13 0 0 0 0 0 0 0 0 0 0 0 0 1 4 1 1 0 0 0 0
102 96 31 7 23 0 75 0 0 0 228 255 175 22 0 0 0 1 153 490 382 418 139 4 0 0 0 0 0 0 0 0 0 0 0 3 13 6 10 9 2 0 0 0
28 79 266 106 53 33 2 80 19 544 3 74 373 19 0 0 0 0 0 249 327 344 141 2 0 0 0 2 1 0 0 0 0 5 1 9 11 12 5 12 0 0 0 0
180 112 138 25 127 60 1 0 0 23 42 31 450 56 0 0 0 0 0 5 208 228 154 15 4 2 3 0 0 0 0 0 3 2 27 18 19 24 2 5 0 0 0 0
120 25 0 159 71 37 85 2 0 0 192 0 0 0 0 0 0 0 0 0 2 81 95 57 17 17 8 2 0 0 0 3 14 24 32 14 23 0 2 0 0 0 0 0
8 0 0 0 12 4 24 11 6 0 0 0 12 0 0 0 0 0 0 0 0 0 31 33 122 66 56 40 12 0 0 0 0 24 35 18 22 0 0 0 0 0 0 0
4 105 0 23 19 0 0 0 0 0 0 0 0 0 0 0 0 0 0 0 0 0 0 32 63 120 102 69 6 0 0 0 0 8 4 29 1 5 0 0 0 0 0 0
189 241 145 27 0 0 0 0 0 0 0 0 0 0 0 0 0 0 0 0 0 0 0 7 21 51 84 86 50 3 2 0 0 13 21 22 14 0 0 0 0 0 0 0
220 269 253 165 0 0 0 0 0 0 0 0 0 0 0 0 0 0 0 0 0 0 0 0 7 52 49 38 32 6 0 0 6 9 14 0 0 0 0 0 0 0 0 2
42 75 67 2 0 0 0 0 0 0 0 0 0 0 0 0 0 0 0 0 0 0 0 0 0 10 16 10 2 0 0 0 8 14 9 0 0 0 2 0 0 0 0 0
0 0 79 0 11 0 0 0 0 0 0 0 0 0 0 0 0 0 0 0 0 0 0 0 0 0 0 0 0 0 0 2 12 3 0 0 0 0 0 0 0 0 0 0
0 7 0 0 20 0 0 0 0 0 0 0 0 0 0 0 0 0 0 0 0 0 0 0 0 1 0 0 0 5 13 13 6 0 0 0 0 0 0 0 0 0 0 0
0 55 0 40 0 0 0 0 0 1 0 0 0 0 0 0 0 0 0 0 0 0 0 0 0 0 0 0 5 10 3 1 0 0 0 0 0 0 0 0 0 0 0 2
43 59 239 3 27 0 0 0 0 0 0 0 0 0 0 0 0 0 8 1 0 0 0 0 0 0 1 12 13 4 0 0 0 0 0 0 0 0 0 0 0 0 0 0
0 0 24 0 0 0 0 0 0 0 0 0 0 0 0 0 0 4 7 2 0 0 0 0 0 0 1 0 4 0 0 0 0 0 0 0 0 0 0 0 0 0 3 0
11 0 0 0 0 0 0 0 0 0 0 0 0 0 0 0 0 0 0 0 0 0 4 0 0 0 0 0 0 0 0 0 0 0 0 0 0 0 0 0 0 0 0 0
0 0 99 92 0 0 0 0 0 0 0 0 0 0 0 0 0 0 0 0 0 1 3 6 0 0 0 0 0 0 0 0 0 0 0 0 0 0 0 0 0 0 0 0

GFSCGP_con_mucape_039.txt.gz
CAPE
53 16 30 10 17 0 0 0 0 0 0 28 0 0 0 0 118 150 132 41 1 14 9 0 14 84 145 181 259 475 451 332 117 59 32 60 9 1 0 0 0 0 0 0
28 32 14 1 0 0 0 0 0 0 2 2 5 0 2 0 74 224 175 164 113 29 7 10 1 143 261 335 412 477 516 275 143 44 52 76 7 0 0 0 0 0 0 0
0 18 3 0 0 0 0 2 2 0 0 0 0 0 0 0 0 149 294 295 305 190 171 187 149 360 418 456 517 520 558 401 130 48 70 27 0 0 0 0 0 0 0 0
12 16 41 1 2 0 0 0 8 9 0 3 6 9 6 0 0 4 299 344 358 338 385 371 321 468 713 656 715 675 558 461 162 195 203 3 0 0 0 0 0 0 0 0
18 0 0 0 1 0 0 0 0 1 2 2 0 0 0 0 0 4 3 266 352 321 455 554 494 587 862 812 814 638 569 410 207 329 35 0 0 0 0 0 0 0 0 0
0 1 0 0 0 0 20 11 12 20 1 0 15 0 4 0 0 11 19 171 183 322 510 606 622 661 859 841 821 745 572 336 456 485 4 0 0 0 0 0 0 2 2 0
1 0 1 6 4 8 5 2 2 5 3 17 19 0 0 0 1 0 0 91 297 423 488 658 710 826 789 671 651 492 460 464 427 75 70 1 0 0 1 5 5 0 3 4
0 0 0 22 7 7 15 0 3 0 0 0 16 17 0 10 27 61 51 18 303 687 674 812 884 867 671 529 419 598 637 469 144 137 87 4 7 8 8 8 2 4 6 16
34 52 1 21 31 19 24 10 5 2 0 4 12 10 27 12 98 132 96 90 576 672 688 737 752 763 839 792 701 630 185 73 60 59 4 0 7 14 21 8 4 8 10 13
5 1 1 13 26 7 19 4 49 2 0 15 0 10 24 7 65 380 381 515 631 669 679 686 703 639 696 539 482 371 256 104 2 0 0 0 4 7 6 12 15 5 16 0
15 1 3 0 8 5 6 3 4 1 0 31 28 0 12 0 4 59 485 549 628 578 515 488 371 219 98 35 55 89 72 0 1 0 0 1 7 17 22 6 22 31 0 2
4 9 2 3 6 16 6 105 57 0 0 0 0 0 0 0 0 0 10 422 513 502 406 278 168 2 0 0 0 0 0 0 0 0 0 0 19 24 13 30 32 6 6 0
50 0 0 0 14 61 10 2 0 4 0 0 0 0 0 0 0 0 0 22 302 393 313 184 58 0 0 0 0 0 11 15 4 0 5 23 34 12 31 24 2 11 0 0
55 26 0 0 0 13 19 20 1 0 0 0 0 0 0 0 0 0 0 0 115 231 220 110 31 4 15 33 49 30 46 69 45 33 34 33 12 17 14 7 3 0 1 1
0 0 0 0 0 2 0 2 0 0 0 0 0 0 0 0 0 0 0 0 0 1 77 125 77 56 46 58 68 56 58 79 56 18 6 7 13 19 20 0 0 0 0 6
0 0 0 0 0 0 0 0 0 0 0 0 0 0 0 0 0 0 0 0 0 0 0 21 63 60 94 62 67 75 64 80 49 33 10 12 18 19 4 0 0 0 0 1
0 0 0 0 0 0 0 0 0 0 0 0 0 0 0 0 0 0 0 0 0 0 0 0 8 69 90 97 95 59 41 65 61 58 37 21 11 11 6 0 0 0 0 0
14 5 7 0 0 0 0 0 0 0 0 0 0 0 0 0 0 0 0 0 0 0 0 0 0 5 50 73 71 55 49 55 48 42 37 23 8 3 0 0 0 0 0 0
59 24 5 0 0 0 0 0 0 0 0 0 0 0 0 0 0 0 0 0 0 0 0 0 0 0 8 37 48 66 44 39 50 32 17 3 0 0 0 0 0 0 0 0
2 0 0 0 0 0 0 0 0 0 0 0 0 0 0 0 0 0 0 0 0 0 0 0 0 0 0 1 18 37 42 45 35 15 12 19 3 0 0 0 0 0 0 0
0 0 0 0 0 0 0 0 0 0 0 0 0 0 0 0 0 0 0 0 0 0 0 0 0 0 0 10 31 36 30 29 33 45 27 0 0 0 0 0 0 0 0 0
0 0 0 0 0 0 0 0 0 0 0 0 0 0 0 0 0 0 0 0 0 0 0 0 1 16 30 27 27 37 36 35 20 8 0 0 0 0 0 0 0 0 0 0
0 0 0 0 0 0 0 0 0 0 0 0 0 0 0 0 0 0 0 0 0 0 0 3 14 11 15 21 17 16 2 0 0 0 0 0 0 0 0 0 0 0 0 0
0 0 0 0 0 0 0 0 0 0 0 0 0 0 0 0 0 0 0 0 1 6 5 8 0 0 0 1 0 0 0 0 0 0 0 0 0 0 0 0 0 0 0 0
0 0 0 0 0 0 0 0 0 0 0 0 0 0 0 0 0 0 5 8 4 0 0 0 0 0 0 0 0 0 0 0 0 0 0 0 0 0 0 0 0 0 0 0
0 0 0 0 0 0 0 0 0 0 0 0 0 0 0 0 0 0 0 0 0 0 0 0 0 0 0 0 0 0 0 0 0 0 0 0 0 0 0 0 0 0 0 0

GFSCGP_con_mucape_042.txt.gz
CAPE
68 39 25 51 35 28 6 0 0 5 0 48 25 3 0 280 677 729 727 585 461 656 717 475 381 344 227 131 102 237 392 392 357 299 204 84 40 3 0 0 0 0 0 0
49 48 30 18 6 0 0 0 0 0 2 49 25 8 17 43 310 664 619 240 306 424 368 440 372 240 157 195 229 219 347 425 446 309 168 35 50 7 1 0 2 8 0 0
0 12 3 1 6 0 2 0 0 0 2 5 25 6 1 1 0 210 453 179 186 166 246 189 162 120 180 244 295 291 423 482 485 217 78 56 73 28 16 2 0 0 0 0
0 0 5 4 0 0 0 0 0 0 2 1 0 0 0 0 0 1 184 168 179 169 109 57 67 105 151 265 297 359 457 465 270 175 70 46 81 32 11 0 0 0 0 0
0 0 0 0 0 0 0 0 0 0 0 0 0 0 0 0 0 0 86 228 268 281 263 113 90 145 181 295 349 423 486 467 387 290 130 58 63 2 0 0 0 0 0 0
0 0 0 0 0 1 0 3 0 1 0 0 0 0 0 0 0 0 0 138 294 344 348 233 217 325 281 330 411 607 602 649 586 250 203 196 81 1 0 0 0 0 3 6
0 0 0 0 0 0 0 2 0 0 0 0 2 0 3 0 0 0 1 20 99 362 414 389 331 566 628 640 548 550 627 540 406 173 340 231 31 17 1 18 14 9 8 1
1 0 0 0 0 1 4 0 0 0 0 0 0 0 10 1 22 6 0 0 0 78 378 460 504 724 860 904 794 731 673 549 423 350 576 150 20 16 56 35 28 29 34 23
1 8 3 6 1 0 4 0 6 6 0 0 0 0 1 42 8 18 30 3 173 363 422 561 669 732 804 860 786 655 558 562 341 531 139 32 42 95 73 52 63 54 18 34
4 10 0 10 1 0 0 0 12 18 0 0 0 0 4 2 46 197 102 72 481 644 710 773 811 868 867 833 529 403 473 446 511 228 122 131 87 60 54 62 58 46 34 8
14 9 0 3 0 5 0 0 0 11 0 0 16 0 47 0 72 268 122 116 577 638 686 820 915 925 787 703 628 654 570 462 230 104 120 71 52 35 36 43 43 43 4 9
14 9 0 0 0 0 0 5 32 31 0 0 0 0 0 0 0 223 381 361 584 670 701 737 775 800 852 831 658 568 424 266 100 72 80 54 34 27 62 51 41 25 12 6
6 4 5 2 7 5 0 0 43 23 0 0 1 3 0 0 0 0 40 443 556 640 658 615 578 567 620 622 437 301 222 128 64 43 59 84 78 72 73 63 19 22 22 13
28 12 0 0 5 7 6 16 19 6 0 0 0 0 0 0 0 0 0 0 211 569 581 514 438 376 283 162 78 49 29 32 36 41 64 53 52 44 48 36 23 11 8 1
44 22 0 0 0 0 0 0 14 4 0 0 0 0 0 0 0 0 0 0 2 145 374 426 357 250 178 74 58 53 42 39 47 60 82 75 53 23 5 4 3 8 3 4
5 0 0 0 0 0 0 0 0 9 0 0 0 0 0 0 0 0 0 0 0 0 0 0 25 89 85 49 40 34 37 60 59 84 89 81 42 49 43 12 6 1 0 0
0 0 0 0 0 0 0 0 0 0 3 1 1 0 0 0 0 0 0 0 0 0 0 0 0 2 21 65 62 70 71 88 96 101 55 43 41 31 45 12 7 5 0 0
0 0 0 0 0 0 0 0 0 0 0 0 0 0 0 0 0 0 0 0 0 0 0 0 0 0 55 96 124 99 78 76 82 52 34 27 27 4 4 7 0 0 0 0
74 4 0 0 0 0 0 0 0 0 0 0 0 0 0 0 0 0 0 0 0 0 0 0 0 0 25 90 114 77 59 54 53 51 43 22 30 20 23 0 0 0 0 0
65 104 11 0 0 0 0 0 0 0 0 0 0 0 0 0 0 0 0 0 0 0 0 0 0 0 0 0 20 28 36 38 27 30 44 25 15 4 0 0 0 0 0 0
69 75 18 8 0 0 0 0 0 0 0 0 0 0 0 0 0 0 0 0 0 0 0 0 0 0 1 5 9 13 13 20 17 29 30 0 0 0 0 0 0 0 0 0
0 0 1 0 0 0 0 0 0 0 0 0 0 0 0 0 0 0 0 0 0 0 0 0 1 5 16 15 17 23 20 1 2 0 0 0 0 0 0 0 0 0 0 0
0 0 0 0 0 0 0 0 0 0 0 0 0 0 0 0 0 0 0 0 0 0 0 3 10 7 10 8 15 6 0 0 0 0 0 0 0 0 0 0 0 0 0 0
0 0 0 0 0 0 0 0 0 0 0 0 0 0 0 0 0 0 0 0 0 2 4 9 2 0 0 4 2 0 0 0 0 0 0 0 0 0 0 0 0 0 0 0
0 0 0 0 0 0 0 0 0 0 0 0 0 0 0 0 0 0 0 0 1 0 0 0 0 0 0 0 0 0 0 0 0 0 0 0 0 0 0 0 0 0 0 0
0 0 0 0 0 0 0 0 0 0 0 0 0 0 0 0 0 0 0 0 0 0 0 0 0 0 0 0 0 0 0 0 0 0 0 0 0 0 0 0 0 0 0 0

GFSCGP_con_mucape_045.txt.gz
CAPE
46 50 38 44 34 37 18 0 1 1 1 29 33 26 52 155 639 644 514 868 893 742 609 567 435 302 236 369 396 409 370 61 121 293 338 406 385 272 54 0 0 0 6 0
15 14 17 15 15 8 3 0 0 0 8 8 31 22 9 263 298 552 633 733 667 736 671 561 473 396 408 490 436 315 165 200 355 390 374 381 275 102 29 9 0 0 0 0
0 0 1 23 5 0 0 0 0 0 0 4 3 14 1 1 326 545 543 702 647 658 651 682 512 516 500 501 428 259 176 295 364 422 416 363 230 71 53 30 9 3 0 0
0 0 0 1 1 0 0 2 0 0 0 0 1 0 0 0 0 357 668 507 634 582 690 745 678 497 463 435 321 153 118 270 318 399 383 319 199 41 48 65 50 33 18 0
0 0 0 0 0 0 0 0 0 0 0 0 2 0 0 0 0 0 94 540 518 352 529 743 647 528 443 442 165 164 192 186 327 396 441 321 113 57 58 69 55 19 0 0
0 0 0 0 0 0 0 0 0 0 0 0 0 0 0 0 0 0 0 154 445 282 315 360 407 416 347 319 107 106 179 257 250 487 439 221 147 61 65 17 4 0 0 0
0 0 0 0 0 0 0 0 0 0 0 0 0 0 0 0 0 0 0 0 80 115 156 189 248 210 130 74 114 113 190 291 401 466 452 268 140 136 89 36 0 0 0 1
0 0 0 0 0 0 0 0 0 0 0 0 0 0 0 0 0 0 0 0 0 112 148 185 177 198 158 202 146 183 255 272 461 601 665 338 139 324 152 62 35 32 47 19
0 0 0 1 1 0 0 0 0 0 0 0 0 0 0 8 19 1 0 0 1 19 138 145 230 302 323 311 201 244 404 402 528 652 584 265 188 291 183 51 49 56 35 25
0 0 0 0 0 0 0 0 0 0 0 0 0 0 0 10 4 26 30 43 40 34 82 237 315 379 486 462 488 604 601 547 593 585 438 254 328 160 145 64 79 45 41 4
0 0 0 1 0 1 4 0 0 0 0 0 0 0 0 6 0 0 21 14 196 420 491 520 516 536 630 735 779 834 793 706 631 494 349 343 153 98 64 39 56 66 55 11
0 0 0 0 0 1 0 1 0 0 0 0 0 0 0 11 1 0 3 132 420 641 690 669 696 730 763 811 881 904 748 575 574 415 353 157 86 92 70 56 76 72 80 59
0 0 0 0 0 8 0 1 9 5 0 0 0 0 0 0 0 0 0 37 228 595 684 758 815 845 904 951 921 666 546 498 500 371 98 76 86 69 70 53 53 25 33 23
0 0 0 0 0 8 23 32 18 4 6 0 0 0 0 0 0 0 0 0 100 406 591 668 714 814 902 909 789 669 557 476 343 103 65 49 48 54 63 57 47 31 44 25
0 0 0 2 0 0 0 11 19 17 4 0 0 0 0 0 0 0 0 0 0 0 207 571 716 758 746 754 687 514 284 140 74 62 51 55 68 68 72 55 11 0 2 3
0 6 2 5 0 0 0 0 1 0 0 0 0 0 0 0 0 0 0 0 0 0 0 8 58 301 398 270 183 137 76 62 53 44 74 68 76 60 40 25 26 10 0 2
16 11 0 0 0 0 0 0 0 0 0 0 0 0 0 0 0 0 0 0 0 0 0 0 0 1 6 24 53 54 56 69 68 79 80 45 42 41 41 38 18 7 0 0
1 2 0 0 0 0 0 0 0 0 0 0 0 0 0 0 0 0 0 0 0 0 0 0 0 0 1 3 24 44 64 76 75 78 64 50 41 33 23 14 5 0 0 0
0 0 0 0 0 0 0 0 0 0 0 0 0 0 0 0 0 0 0 0 0 0 0 0 0 0 0 7 24 62 82 79 60 37 44 37 20 18 11 7 0 0 0 0
0 2 0 0 0 0 0 0 0 0 0 0 0 0 0 0 0 0 0 0 0 0 0 0 0 0 0 0 0 10 50 51 37 27 16 12 6 6 0 0 0 0 0 0
1 0 7 1 0 0 0 0 0 0 0 0 0 0 0 0 0 0 0 0 0 0 0 0 0 0 0 0 0 1 4 18 12 22 6 0 0 0 0 0 0 0 0 0
0 1 0 10 14 0 0 0 0 0 0 0 0 0 0 0 0 0 0 0 0 0 0 0 0 0 0 4 6 15 2 3 6 4 0 0 0 0 0 0 0 0 0 0
0 0 0 0 1 0 0 0 0 0 0 0 0 0 0 0 0 0 0 0 0 0 0 0 0 1 9 11 13 0 1 2 0 0 0 0 0 0 0 0 0 0 0 0
0 0 0 0 0 0 0 0 0 0 0 0 0 0 0 0 0 0 0 0 0 0 0 1 1 0 0 10 7 4 0 0 0 0 0 0 0 0 0 0 0 0 0 0
0 0 0 0 0 0 0 0 0 0 0 0 0 0 0 0 0 0 0 0 0 0 1 0 0 0 0 0 0 0 0 0 0 0 0 0 0 0 0 0 0 0 0 0
0 0 0 0 0 0 0 0 0 0 0 0 0 0 0 0 0 0 0 0 0 0 0 0 0 0 0 0 0 0 0 0 0 0 0 0 0 0 0 0 0 0 0 0

GFSCGP_con_mucape_048.txt.gz
CAPE
0 0 0 9 16 15 19 21 0 15 30 3 46 42 8 719 812 592 675 587 633 634 417 488 303 206 61 11 91 137 218 307 45 0 10 100 288 386 343 237 91 0 0 1
0 0 0 0 8 12 8 7 0 1 0 0 0 3 6 139 833 470 769 840 841 836 760 589 598 401 228 64 88 184 300 318 109 29 46 152 276 350 314 232 82 12 1 1
0 0 0 0 0 7 14 7 1 0 0 0 0 0 6 0 59 556 404 536 614 703 757 705 685 640 442 240 167 256 416 410 242 45 56 130 236 282 165 78 53 39 38 16
0 0 0 0 0 0 3 1 0 0 0 0 0 0 0 0 0 116 278 354 415 603 684 719 636 609 538 424 319 411 501 493 389 73 67 234 296 276 126 59 35 15 47 14
0 0 0 0 0 0 0 0 0 0 0 0 0 0 1 0 0 0 157 441 444 490 526 625 673 629 554 507 439 546 571 477 199 95 195 292 320 365 264 57 27 44 43 26
0 0 0 0 0 0 0 0 0 0 0 0 0 0 0 0 0 0 0 160 536 459 620 650 711 719 679 586 550 570 564 467 231 119 279 325 386 199 137 43 35 51 24 21
0 0 0 0 0 0 0 0 0 0 0 0 0 0 0 0 0 0 0 0 58 599 525 562 592 592 760 698 576 537 572 474 143 135 179 293 358 268 165 75 52 27 1 0
0 0 0 0 0 0 0 0 0 0 0 0 0 0 0 0 0 0 0 0 0 5 283 564 455 452 645 680 561 515 532 393 103 123 248 211 374 381 196 82 149 27 12 5
0 0 0 0 0 0 0 0 0 0 0 0 0 0 0 0 0 0 0 0 0 0 3 190 503 399 423 440 479 439 351 278 101 249 308 287 378 384 295 129 322 50 28 36
0 0 0 4 0 0 0 0 0 0 0 0 0 0 0 0 0 0 0 0 4 8 0 6 105 155 257 256 345 396 488 405 341 398 375 383 457 490 285 173 185 73 62 56
0 0 0 0 0 0 0 0 0 0 0 0 0 0 0 0 0 0 0 0 6 15 60 215 319 303 272 294 358 415 412 603 588 548 424 454 578 509 174 180 162 59 55 60
0 0 0 0 0 0 0 0 0 0 0 0 0 0 0 0 1 0 0 28 73 247 310 271 220 187 289 364 349 304 465 738 696 666 587 506 467 349 301 107 75 78 71 45
0 0 0 0 0 0 0 0 0 0 0 0 0 0 0 0 0 0 0 0 88 353 506 478 482 428 403 361 393 554 729 817 763 675 587 383 316 175 44 68 72 64 39 36
1 0 0 0 0 0 7 0 0 0 0 0 0 0 0 0 0 0 0 0 0 123 458 578 596 651 666 661 658 619 655 660 485 317 253 166 65 49 41 56 30 30 16 21
3 0 0 0 0 0 0 0 0 0 0 0 0 0 0 0 0 0 0 0 0 0 44 317 495 590 643 660 715 703 652 570 350 152 93 60 51 46 53 39 32 13 11 4
2 10 0 0 0 0 0 0 0 0 1 0 0 0 0 0 0 0 0 0 0 5 18 49 98 166 213 208 221 220 272 162 66 83 80 76 49 76 64 26 41 14 42 32
7 6 16 2 12 14 0 0 0 0 0 0 0 0 0 0 0 0 0 0 0 0 0 0 0 0 0 0 0 8 7 0 26 47 66 57 90 55 45 37 16 25 11 32
8 13 22 7 15 0 0 0 0 0 0 0 0 0 0 0 0 0 0 0 0 0 0 0 0 0 0 0 0 0 0 0 19 45 47 46 31 34 50 47 42 24 6 0
10 22 32 27 5 0 0 0 0 0 0 0 0 0 0 0 0 0 0 0 0 0 0 0 0 0 0 0 0 0 1 18 43 39 36 25 37 31 37 25 4 0 0 0
26 22 34 1 0 0 0 0 0 0 0 0 0 0 0 0 0 0 0 0 0 0 0 0 0 0 0 0 0 0 0 9 11 25 43 34 17 9 2 0 0 0 0 0
13 13 9 0 0 0 0 0 0 0 0 0 0 0 0 0 0 0 0 0 0 0 0 0 0 0 0 0 0 0 0 2 3 8 6 5 0 0 0 0 0 0 0 0
11 26 16 3 0 0 0 0 0 0 0 0 0 0 0 0 0 0 0 0 0 0 0 0 0 0 0 0 0 0 1 3 3 0 4 1 1 0 0 0 0 0 0 0
1 1 13 1 0 0 0 0 0 0 0 0 0 0 0 0 0 0 0 0 0 0 0 0 0 0 0 0 0 0 6 5 3 0 0 0 0 0 0 0 0 0 0 0
0 11 12 15 0 0 0 0 0 0 0 0 0 0 0 0 0 0 0 0 0 0 0 0 0 0 0 0 7 6 0 0 0 0 0 0 0 0 0 0 0 0 0 0
0 16 2 0 0 0 0 0 0 0 0 0 0 0 0 0 0 0 0 0 0 0 0 0 1 1 0 0 0 0 0 0 0 0 0 0 0 0 0 0 0 0 0 0
0 5 6 0 0 0 0 0 0 0 0 0 0 0 0 0 0 0 0 0 0 0 0 0 0 0 0 0 0 0 0 0 0 0 0 0 0 0 0 0 0 0 0 0

GFSCGP_con_mucape_051.txt.gz
CAPE
0 0 0 0 0 0 1 0 7 1 11 1 2 18 20 878 820 749 504 403 521 460 351 243 163 136 35 27 69 112 280 267 286 129 27 30 33 47 80 147 125 146 124 81
0 0 0 0 0 0 0 0 11 3 2 0 0 6 26 334 948 799 776 482 461 524 547 369 302 188 116 72 97 138 227 273 283 231 44 34 35 15 73 169 187 100 28 10
0 0 0 0 0 0 0 0 0 0 0 1 0 1 10 27 444 699 668 794 620 633 778 717 552 390 265 142 118 122 209 273 268 249 49 44 23 60 157 235 132 41 45 9
0 0 0 0 0 0 0 0 0 0 0 0 0 0 0 8 14 142 751 608 782 733 778 877 831 703 539 389 162 130 185 203 233 329 50 49 48 80 176 162 110 26 49 23
0 0 0 0 0 0 0 0 0 0 0 0 0 0 2 2 0 0 38 566 638 618 771 831 840 870 800 719 565 266 199 162 300 432 328 80 51 83 113 193 107 36 38 37
0 0 0 0 0 0 0 0 0 0 0 0 0 0 2 0 0 0 0 10 340 489 405 731 901 770 675 683 673 541 355 308 389 504 519 444 149 150 153 128 155 94 49 39
0 0 0 0 0 0 0 0 0 0 0 0 0 0 12 0 0 0 4 3 17 376 400 408 634 723 679 691 685 631 557 483 520 567 497 378 124 87 281 226 131 116 51 60
0 0 0 0 0 0 0 0 7 0 0 0 0 0 0 0 0 13 0 0 0 88 229 505 454 621 594 725 798 795 725 614 645 652 586 400 102 192 295 281 215 127 42 57
0 0 0 0 0 0 0 0 0 0 0 0 0 0 0 0 3 1 3 5 0 0 0 98 495 598 562 635 682 743 842 720 648 616 607 458 213 204 194 155 180 106 65 45
0 0 0 0 1 0 0 0 0 0 0 0 0 0 0 0 0 0 0 0 14 22 9 5 0 77 310 533 561 543 711 665 622 502 458 453 299 206 176 157 205 151 90 77
0 0 0 0 0 2 0 0 1 2 0 0 0 0 0 0 0 0 0 0 0 10 22 22 66 136 234 266 263 305 371 401 409 344 425 291 231 196 190 207 234 217 70 63
0 0 0 0 0 0 0 0 2 20 0 0 0 0 0 0 0 0 0 0 28 117 160 126 123 171 241 254 294 313 317 319 305 220 198 310 255 254 229 275 140 69 96 57
0 0 0 0 0 0 0 0 0 0 0 0 0 0 0 0 0 0 0 0 1 158 279 234 184 188 262 324 308 290 265 335 379 393 419 363 233 205 93 75 65 56 56 53
0 0 0 0 0 0 0 0 0 0 0 0 0 0 0 0 0 0 0 0 0 0 226 396 460 485 471 473 479 434 464 559 673 659 566 353 208 66 64 39 43 35 40 21
0 0 0 0 0 0 0 0 0 0 0 0 0 0 0 0 0 0 0 0 0 0 0 177 355 489 622 695 697 690 672 645 614 493 282 120 62 37 16 29 11 44 29 13
0 0 0 0 0 0 0 0 0 0 0 0 0 0 0 0 0 0 0 0 0 0 0 16 131 244 295 273 180 141 132 175 209 179 143 67 26 24 4 7 31 11 10 2
2 0 0 0 0 0 0 0 0 0 0 0 0 0 0 0 0 0 0 0 0 0 0 0 0 0 0 0 0 0 0 0 0 0 14 9 5 10 16 16 24 3 11 29
1 2 0 1 7 0 0 0 0 0 0 0 0 0 0 0 0 0 0 0 0 0 0 0 0 0 0 0 0 0 0 0 0 0 0 0 9 17 27 10 0 4 5 3
13 13 9 0 0 0 0 0 0 0 0 0 0 0 0 0 0 0 0 0 0 0 0 0 0 0 0 0 0 0 0 0 0 0 3 6 26 14 1 11 6 1 0 0
13 9 30 16 0 0 0 0 0 0 0 0 0 0 0 0 0 0 0 0 0 0 0 0 0 0 0 0 0 0 0 0 0 0 0 10 25 4 0 5 0 0 0 0
12 12 8 7 2 0 0 0 0 0 0 0 0 0 0 0 0 0 0 0 0 0 0 0 0 0 0 0 0 0 0 0 0 0 0 4 0 0 0 0 0 0 0 0
12 11 0 2 2 0 0 0 0 0 0 0 0 0 0 0 0 0 0 0 0 0 0 0 0 0 0 0 0 0 0 0 0 0 0 0 0 0 0 0 0 0 0 0
8 0 0 0 0 0 0 0 0 0 0 0 0 0 0 0 0 0 0 0 0 0 0 0 0 0 0 0 0 0 0 0 0 0 0 0 0 0 0 0 0 0 0 0
0 14 15 5 1 0 0 0 1 0 0 0 0 0 0 0 0 0 0 0 0 0 0 0 0 0 0 0 0 0 0 0 0 0 0 0 0 0 0 0 0 0 0 0
2 19 25 25 15 2 3 8 0 0 0 0 0 0 0 0 0 0 0 0 0 0 0 0 0 0 0 0 0 0 0 0 0 0 0 0 0 0 0 0 0 0 0 0
0 0 20 13 42 27 13 2 0 0 0 0 0 0 0 0 0 0 0 0 0 0 0 0 0 0 0 0 0 0 0 0 0 0 0 0 0 0 0 0 0 0 0 0

GFSCGP_con_mucape_054.txt.gz
CAPE
0 0 0 0 0 0 4 37 59 78 71 54 56 88 90 901 1009 849 1036 794 678 934 755 355 321 208 139 118 121 149 194 298 569 507 385 197 77 153 312 492 496 226 272 253
0 0 0 0 0 6 13 43 26 45 10 10 49 61 64 499 1057 921 948 987 841 1003 737 316 373 266 160 123 201 221 254 454 641 496 349 128 46 117 260 397 142 114 95 58
0 0 0 0 0 20 33 35 28 27 8 1 24 51 69 112 693 941 1058 988 694 775 927 762 349 364 320 208 287 392 514 675 842 627 481 209 159 211 270 269 210 84 72 48
0 0 0 0 0 0 11 20 2 8 25 61 7 52 25 66 179 528 880 1166 1135 575 777 1080 857 511 378 342 298 301 347 471 780 821 516 219 112 135 245 296 94 69 58 42
0 0 0 0 0 0 16 0 10 18 48 48 32 43 81 2 37 68 243 758 1150 1184 763 998 1265 1130 872 608 473 475 468 501 651 823 836 523 211 127 416 438 189 63 80 44
0 0 0 0 0 0 0 0 1 36 73 81 32 40 70 63 43 36 20 109 577 1019 1125 869 1115 1410 1464 1416 1249 1063 722 580 690 770 884 943 688 552 703 460 274 115 50 49
0 0 0 0 0 0 0 38 91 108 118 109 0 16 60 26 19 43 82 140 81 480 1093 1116 1028 1273 1491 1594 1669 1457 1181 942 844 944 1008 1063 1017 881 731 519 296 78 56 42
0 0 0 0 0 4 0 55 114 54 95 91 0 29 70 6 3 4 133 73 12 63 433 1034 1086 1257 1405 1530 1679 1562 1368 1271 1047 1133 1137 1073 862 885 667 412 201 106 127 31
0 0 0 0 0 0 2 15 30 56 12 137 38 4 2 0 0 15 57 89 16 14 255 503 834 1165 1399 1531 1525 1586 1504 1378 1314 1049 1152 941 786 578 555 259 126 114 133 155
0 0 0 0 0 0 1 15 32 79 59 51 35 0 20 0 0 0 0 31 252 162 109 176 397 821 1148 1353 1375 1473 1436 1350 1373 1200 1058 859 673 570 420 256 177 80 80 112
0 0 0 9 6 18 4 9 7 66 61 61 24 34 0 0 0 0 8 92 170 359 288 276 213 280 502 799 961 1121 1207 1247 1259 1218 1139 951 934 746 223 148 109 88 99 141
0 0 10 5 0 2 70 59 41 80 56 66 106 42 0 0 0 0 0 6 233 494 655 469 493 522 549 638 749 878 991 1080 1110 1165 1170 1023 590 225 236 141 74 80 74 39
0 0 0 0 0 0 2 0 4 28 16 17 234 38 4 0 0 0 0 0 63 350 630 674 678 739 838 914 924 964 1025 1038 1013 928 614 329 322 325 132 43 48 47 48 68
4 3 0 1 0 8 1 0 10 43 80 0 0 1 8 6 12 26 0 0 0 104 606 851 911 913 949 1017 1124 1134 863 560 445 499 541 574 523 265 135 50 41 36 36 44
13 8 0 0 0 2 0 0 9 21 3 10 0 3 15 17 46 11 0 0 0 0 192 621 888 1025 1079 1010 686 650 557 617 657 679 564 459 326 145 30 28 20 17 46 14
10 6 10 4 0 0 0 0 0 0 0 23 16 0 34 58 0 0 0 0 0 0 6 74 284 459 567 655 658 552 559 516 424 323 273 278 191 118 70 10 0 1 2 10
26 27 10 0 1 7 0 0 0 0 20 52 51 50 21 9 0 0 0 0 0 0 0 16 145 250 248 150 43 17 6 5 7 8 6 0 0 0 0 0 3 8 1 0
41 48 32 10 0 0 0 0 13 9 23 35 10 1 0 0 0 0 0 0 0 0 0 0 0 0 0 0 0 0 0 0 0 0 0 0 0 0 0 1 3 0 0 0
60 70 46 129 9 0 0 0 0 9 6 25 4 0 0 0 0 0 0 0 0 0 0 0 0 0 0 0 0 0 0 0 0 0 0 0 0 0 2 0 0 0 0 0
1 28 152 9 0 61 0 0 0 0 15 54 0 0 0 0 0 0 0 0 0 0 0 0 0 0 0 0 0 0 0 0 0 0 0 0 0 0 0 0 0 0 0 0
15 26 52 79 76 22 0 0 0 7 122 13 0 0 0 0 0 0 0 0 0 0 0 0 0 0 0 0 0 0 0 0 0 0 0 0 0 0 0 0 0 0 0 0
48 57 26 51 110 8 0 0 0 65 4 0 0 0 0 0 0 0 0 0 0 0 0 0 0 0 0 0 0 0 0 0 0 0 0 0 0 0 0 0 0 0 0 0
37 11 104 18 43 68 0 9 0 5 2 0 0 0 0 0 0 0 0 0 0 0 0 0 0 0 0 0 0 0 0 0 0 0 0 0 0 0 0 0 0 0 0 0
0 0 0 0 5 0 3 0 1 1 0 0 0 0 0 0 0 0 0 0 0 0 0 0 0 0 0 0 0 0 0 0 0 0 0 0 0 0 0 0 0 0 0 0
1 0 0 0 0 0 0 27 42 21 4 0 0 0 0 0 0 0 0 0 0 0 0 0 0 0 0 0 0 0 0 0 0 0 0 0 0 0 0 0 0 0 0 0
0 0 1 2 10 36 135 67 17 13 0 0 0 0 0 0 0 0 0 0 0 0 0 0 0 0 0 0 0 0 0 0 0 0 0 0 0 0 0 0 0 0 0 0

GFSCGP_con_mucape_057.txt.gz
CAPE
0 0 0 7 14 1 0 22 41 50 38 125 71 53 69 431 696 650 930 821 887 1047 690 374 158 99 83 52 42 23 41 231 70 102 107 89 13 45 58 162 433 700 529 609
0 0 0 8 0 0 0 42 50 76 41 21 30 84 14 216 712 691 848 1070 592 888 768 492 328 235 191 112 26 3 4 19 76 46 38 58 75 8 119 245 506 583 490 484
0 3 0 0 0 0 4 48 63 56 29 24 5 33 3 48 529 656 721 996 733 812 740 516 368 332 283 224 134 48 158 182 207 249 191 133 77 68 70 196 393 475 255 91
0 0 0 0 0 6 35 43 20 25 36 69 27 100 77 54 190 582 703 747 812 631 894 732 573 540 377 283 287 270 280 313 384 492 406 334 135 63 64 228 306 392 83 11
0 0 0 0 0 6 19 9 21 29 66 110 108 56 77 22 14 99 392 627 768 607 837 905 712 658 611 482 546 514 515 593 630 688 572 517 366 171 154 266 394 361 116 21
0 0 0 3 6 0 5 3 22 75 100 103 113 94 23 40 12 22 45 269 621 828 553 859 1012 858 759 755 908 955 572 542 553 646 856 968 870 502 267 324 751 457 304 106
0 0 0 0 1 0 0 27 103 119 147 139 60 81 55 30 38 11 37 79 205 599 884 646 868 1180 1107 1046 1071 1195 777 728 719 963 960 1035 1083 1126 867 708 1000 581 417 199
0 0 0 0 0 28 14 44 124 102 211 213 93 27 90 13 0 0 0 108 192 239 631 972 836 993 1294 1635 1781 1376 1277 1208 970 991 1149 1218 1294 1329 1406 1025 1060 961 665 241
0 0 7 2 1 0 23 68 86 107 175 169 184 106 93 1 3 0 14 107 209 188 273 648 988 1004 1246 1550 2127 2365 1876 1640 1441 1382 1311 1220 1541 1813 1490 1370 1128 795 606 105
3 11 3 1 0 2 10 67 89 116 92 153 168 167 102 1 0 0 0 9 212 210 188 395 685 1091 1249 1523 2098 2093 2137 1881 1739 1530 1512 1500 1675 1276 1085 901 586 415 188 63
2 1 21 22 1 26 8 53 65 112 134 149 237 181 64 6 0 0 0 1 17 270 425 359 477 696 1124 1416 1777 2068 2053 1993 1813 1650 1709 1445 985 899 810 563 530 522 122 52
0 8 11 1 3 0 29 43 61 134 177 204 192 304 51 35 4 0 0 0 93 255 405 588 540 498 748 1168 1514 1676 1789 1841 1807 1773 1719 1391 1007 777 764 630 578 542 272 173
2 17 0 44 21 25 0 98 106 110 135 154 198 162 57 11 0 0 0 4 68 253 406 756 973 940 863 950 1083 1244 1358 1364 1431 1490 1215 932 856 947 957 561 486 240 97 66
36 10 6 11 28 40 11 40 75 83 182 88 65 64 95 58 44 46 29 0 17 238 367 304 528 846 1041 1150 1192 1301 1239 1233 1156 991 894 777 768 456 386 317 200 85 43 72
33 16 27 10 24 34 24 21 39 63 56 72 51 68 91 65 58 53 48 1 0 0 271 476 587 863 1180 1349 1429 1050 843 785 523 428 471 474 406 325 339 212 127 39 40 56
59 76 28 2 25 29 12 8 14 29 32 31 21 34 67 3 27 95 38 0 13 1 79 593 974 1307 1359 1084 890 357 190 411 488 523 466 376 331 242 254 226 154 82 15 1
97 129 77 4 38 44 56 2 11 12 19 20 30 39 57 69 27 29 7 24 53 126 160 341 811 941 664 466 463 460 438 374 219 72 35 31 16 3 0 0 0 0 0 0
169 110 112 135 10 0 0 5 1 4 3 15 6 7 53 40 10 4 2 29 92 25 48 147 218 105 214 390 381 126 33 19 4 0 0 0 0 0 0 0 0 0 0 0
29 178 135 143 0 7 0 0 0 8 5 21 12 22 19 14 0 0 0 3 1 0 0 0 0 2 4 0 1 1 0 0 0 0 0 0 0 0 0 0 0 0 0 0
0 62 248 84 0 0 0 0 0 34 64 20 29 14 0 0 0 0 0 0 0 0 0 0 0 0 0 0 0 0 0 0 0 0 0 0 0 0 0 0 0 0 0 0
6 73 194 174 11 7 0 2 33 92 151 91 46 4 0 0 0 0 0 0 0 0 0 0 0 0 0 0 0 0 0 0 0 0 0 0 0 0 0 0 0 0 0 0
55 72 113 138 171 35 0 14 47 150 177 65 57 10 1 0 0 0 0 0 0 0 0 0 0 0 0 0 0 0 0 0 0 0 0 0 0 0 0 0 0 0 0 0
152 116 157 113 117 91 35 86 71 105 138 160 109 28 0 0 0 0 0 0 0 0 0 0 0 0 0 0 0 0 0 0 0 0 0 0 0 0 0 0 0 0 0 0
81 65 174 119 103 125 104 70 69 69 129 138 78 33 0 0 0 0 0 0 0 0 0 0 0 0 0 0 0 0 0 0 0 0 0 0 0 0 0 0 0 0 0 0
38 47 24 27 8 33 58 71 81 103 44 21 4 1 0 0 0 0 0 0 0 0 0 0 0 0 0 0 0 0 0 0 0 0 0 0 0 0 0 0 0 0 0 0
0 0 30 1 0 126 48 107 25 148 91 10 1 0 0 0 0 0 0 0 0 0 0 0 0 0 0 0 0 0 0 0 0 0 0 0 0 0 0 0 0 0 0 0

GFSCGP_con_mucape_060.txt.gz
CAPE
0 0 0 0 0 2 2 0 0 14 13 9 52 21 34 72 52 302 531 172 380 809 280 96 44 5 0 0 1 1 0 2 0 0 0 18 62 111 102 62 167 427 393 417
0 0 0 0 0 0 0 0 0 21 15 10 6 1 14 111 158 307 444 619 528 638 504 145 59 44 0 0 0 0 0 0 3 10 4 43 1 19 88 43 141 445 552 419
0 0 0 0 0 0 0 0 0 6 0 2 5 0 2 1 94 165 565 898 400 817 581 272 111 60 0 0 0 0 0 0 0 72 35 17 0 0 0 37 68 386 405 419
0 0 0 0 0 0 15 9 0 0 20 20 5 7 23 7 23 163 343 867 624 536 746 394 201 142 137 34 11 0 0 7 5 17 34 7 21 11 2 34 77 347 404 294
0 0 0 0 0 0 0 10 3 4 0 21 19 2 26 18 27 98 341 391 812 529 750 640 369 234 245 205 94 0 0 11 80 74 235 148 151 39 44 69 154 396 330 170
0 2 0 0 0 0 0 9 0 0 0 17 11 16 53 29 27 59 160 226 648 620 905 788 605 492 339 261 303 197 238 241 236 188 252 579 546 351 113 139 178 369 271 131
0 0 0 0 0 1 0 5 22 60 79 94 16 42 166 3 0 101 57 142 441 668 601 865 776 629 622 438 353 414 383 422 435 578 754 687 637 865 317 399 528 346 264 263
0 0 0 0 0 0 0 0 56 14 33 126 79 62 35 22 4 9 0 3 212 451 700 597 810 751 660 729 620 505 502 472 526 567 710 984 775 704 708 531 528 452 346 244
0 0 0 0 0 0 0 36 16 59 23 74 138 60 86 11 0 0 0 32 169 194 461 825 540 1049 983 906 963 923 816 649 633 628 698 751 643 656 831 640 829 647 451 442
0 0 1 0 0 0 0 1 65 67 47 46 67 31 20 0 5 0 0 52 236 160 242 326 828 817 1226 1258 1314 1272 1133 1086 1076 1161 948 833 721 851 710 1132 1001 683 787 626
1 34 15 8 4 0 0 0 48 68 82 139 145 66 18 1 0 0 0 8 57 218 384 321 515 958 1070 1423 1587 1789 1817 1696 1710 1532 1191 960 1044 1166 930 690 621 567 577 361
0 27 0 1 0 0 0 16 22 124 40 154 213 103 11 28 6 1 7 0 91 170 306 467 468 596 1078 1294 1464 1989 2054 1996 1806 1741 1427 1242 1099 1030 702 569 444 395 275 608
0 15 0 1 29 9 0 0 27 71 80 136 115 104 71 5 1 1 0 3 80 178 316 583 677 574 737 1170 1563 1816 2037 1899 1661 1296 1036 1113 842 750 682 800 825 386 228 354
40 32 0 0 10 13 8 6 49 85 152 81 98 97 117 79 43 5 19 0 3 142 293 603 864 897 880 1014 1233 1394 1321 1298 1236 958 1085 708 798 540 696 451 364 284 234 209
53 0 61 28 14 51 15 1 0 0 61 40 86 15 12 62 30 34 63 44 6 32 202 250 566 951 1122 1239 1163 1134 1120 1093 1065 999 943 731 597 515 428 371 211 145 79 78
47 0 64 0 22 9 1 11 9 1 16 16 38 39 37 26 7 6 77 47 8 0 0 301 498 868 1071 1223 1145 1105 1028 998 926 990 756 446 349 258 190 151 109 114 72 3
75 102 83 0 34 61 0 12 10 19 34 37 29 44 26 28 22 51 41 58 0 27 35 202 696 1059 1220 1108 1019 830 916 781 682 464 347 231 199 105 37 2 0 0 0 0
37 164 100 0 50 0 1 12 4 11 9 13 6 6 15 16 33 42 22 45 20 118 159 274 956 1024 696 566 388 390 103 130 251 242 81 22 8 0 0 0 0 0 0 0
14 95 0 0 0 14 7 2 23 16 5 18 1 1 14 10 41 26 1 5 116 58 105 262 477 528 327 288 171 236 215 66 29 23 10 0 0 0 0 0 0 0 0 0
0 12 42 42 0 0 6 29 14 32 9 3 11 42 33 48 41 0 0 17 6 0 0 0 1 0 0 0 9 7 0 0 0 0 0 0 0 0 0 0 0 0 0 0
0 40 0 12 0 16 1 17 35 49 19 128 88 74 79 67 33 2 0 0 0 0 0 0 0 0 0 0 0 0 0 0 0 0 0 0 0 0 0 0 0 0 0 0
0 0 0 74 38 0 25 40 55 81 193 244 148 124 40 77 4 0 0 0 0 0 0 0 0 0 0 0 0 0 0 0 0 0 0 0 0 0 0 0 0 0 0 0
6 31 99 40 29 212 89 68 153 238 267 272 203 139 150 41 0 0 0 0 0 0 0 0 0 0 0 0 0 0 0 0 0 0 0 0 0 0 0 0 0 0 0 0
168 111 107 69 23 49 50 86 110 193 192 145 166 168 138 44 0 0 0 0 0 0 0 0 0 0 0 0 0 0 0 0 0 0 0 0 0 0 0 0 0 0 0 0
84 136 108 147 136 56 16 33 56 56 132 164 93 67 55 35 0 0 0 0 0 0 0 0 0 0 0 0 0 0 0 0 0 0 0 0 0 0 0 0 0 0 0 0
46 53 79 106 58 75 75 33 34 36 13 129 111 57 8 27 0 0 0 0 0 0 0 0 0 0 0 0 0 0 0 0 0 0 0 0 0 0 0 0 0 0 0 0

GFSCGP_con_mucape_063.txt.gz
CAPE
0 0 0 0 0 0 0 0 0 0 35 10 7 7 57 22 14 21 85 26 269 209 175 44 0 0 0 0 0 0 0 0 2 0 0 0 0 8 2 17 0 75 126 96
0 0 0 0 0 0 0 0 0 0 13 0 16 9 56 60 66 67 143 144 402 368 305 94 20 0 0 0 0 0 0 0 0 0 0 0 0 0 1 9 5 117 184 208
0 0 0 0 0 0 1 0 0 0 10 1 2 1 52 82 63 141 245 199 378 589 463 145 18 0 0 0 0 0 0 0 0 0 0 0 0 9 8 0 0 34 143 161
0 0 0 0 0 0 0 0 0 0 11 0 0 1 18 48 106 232 263 450 375 526 475 327 0 0 0 0 0 0 0 0 0 0 0 0 0 0 0 0 0 64 269 315
0 0 0 0 0 0 0 0 0 0 0 0 0 0 12 15 16 110 619 676 462 521 474 423 64 0 0 0 0 0 0 0 0 0 0 0 0 0 0 0 0 17 155 258
0 0 0 0 0 0 0 0 0 0 0 0 0 0 0 0 9 9 280 734 301 523 566 472 264 0 0 0 0 0 0 0 0 0 2 9 0 1 4 3 0 15 143 215
0 0 0 0 0 0 0 0 0 0 0 0 6 25 2 0 0 0 16 544 337 163 569 535 381 188 0 0 0 0 0 0 0 0 0 0 21 14 8 7 15 76 178 263
0 0 0 0 0 0 0 0 0 0 0 0 20 5 10 16 0 0 38 23 204 363 427 530 446 307 162 33 2 5 0 0 0 0 2 0 39 160 175 68 47 48 134 178
0 0 0 0 0 0 0 0 1 2 9 1 2 0 1 0 1 0 0 0 93 467 464 542 507 424 332 143 58 12 1 0 0 7 40 89 78 77 264 231 170 115 166 179
0 0 0 0 0 0 0 0 3 10 0 0 2 25 17 0 1 0 0 7 84 333 454 571 552 543 475 359 258 160 130 94 26 51 113 150 395 372 324 410 355 241 133 242
0 0 0 0 0 0 0 0 0 1 4 9 0 3 0 0 0 1 0 0 90 143 75 191 521 599 519 408 406 363 354 320 255 189 138 206 246 422 344 338 189 144 41 198
0 0 0 0 0 0 0 0 0 0 0 29 13 1 0 6 6 0 0 0 1 102 186 173 161 409 577 552 555 507 522 554 390 404 285 343 321 257 289 22 259 202 268 193
0 0 0 0 0 0 0 0 0 0 0 28 27 4 71 1 10 0 0 0 0 41 218 263 262 214 478 687 625 610 560 1017 622 459 507 551 573 257 340 210 313 223 383 186
1 0 0 0 0 0 0 0 0 0 1 5 3 0 35 37 20 2 9 1 5 7 207 324 401 381 418 798 1104 1303 1059 336 326 128 789 756 562 412 484 373 174 177 224 152
9 0 0 0 0 0 0 1 0 0 0 12 8 2 41 64 44 15 1 2 0 0 173 396 546 564 743 746 880 1075 1036 848 619 875 797 715 693 612 399 182 78 155 70 47
8 0 0 0 0 0 0 0 6 2 2 32 13 1 2 63 35 30 12 0 0 4 34 302 567 756 860 773 791 838 894 859 805 747 718 680 420 395 191 87 83 30 28 40
0 0 0 0 0 0 0 0 0 0 1 0 28 11 41 43 29 13 0 12 8 0 0 81 567 848 898 899 854 820 825 806 739 670 456 322 197 116 71 79 62 20 0 0
0 9 28 0 0 0 0 0 0 0 0 0 5 5 11 3 1 7 15 36 27 2 1 404 451 759 840 924 938 895 822 758 575 446 394 284 118 68 43 2 0 0 0 0
4 54 45 0 0 0 0 0 0 0 0 0 0 0 0 0 3 10 21 25 17 9 25 640 641 747 837 887 894 730 613 427 274 261 189 159 83 33 11 0 0 0 0 0
0 4 32 0 0 0 0 0 2 22 0 0 0 0 1 11 24 15 9 34 53 59 287 442 650 733 663 497 432 328 166 116 85 60 68 27 10 0 0 0 0 0 0 0
3 0 0 0 0 0 11 0 9 5 0 11 1 22 22 6 12 17 7 34 38 39 74 118 174 221 241 258 238 108 4 29 2 0 0 0 0 0 0 0 0 0 0 0
0 0 0 0 0 0 9 25 0 0 15 29 23 60 62 30 5 5 10 13 8 0 0 0 0 2 2 0 0 0 0 0 0 0 0 0 0 0 0 0 0 0 0 0
53 0 0 0 0 57 53 70 16 2 0 27 72 59 26 48 12 5 1 0 0 0 0 0 0 0 0 0 0 0 0 0 0 0 0 0 0 0 0 0 0 0 0 0
55 48 26 31 11 19 2 31 23 7 3 2 25 66 55 66 22 4 22 0 0 0 0 0 0 0 0 0 0 0 0 0 0 0 0 0 0 0 0 0 0 0 0 0
1 95 60 7 17 44 52 0 6 0 0 0 9 10 37 9 16 30 40 1 0 0 0 0 0 0 0 0 0 0 0 0 0 0 0 0 0 0 0 0 0 0 0 0
14 0 0 3 0 19 25 57 78 29 10 22 3 7 30 33 9 10 6 12 0 0 0 0 0 0 0 0 0 0 0 0 0 0 0 0 0 0 0 0 0 0 0 0

GFSCGP_con_mucape_069.txt.gz
CAPE
0 0 0 0 0 0 0 0 0 0 0 0 0 0 0 0 0 0 0 25 9 9 6 20 0 0 0 1 1 3 10 17 8 13 15 25 6 5 87 102 101 90 65 55
0 0 0 0 0 0 0 0 0 0 0 0 0 1 0 0 0 0 0 0 0 0 18 18 8 0 0 0 3 0 0 1 13 15 9 10 2 14 23 32 76 76 62 83
0 0 0 0 0 0 0 0 0 0 0 0 1 0 0 0 0 0 0 0 0 0 33 27 27 0 0 0 0 0 0 6 2 0 18 18 30 5 0 0 4 37 53 58
0 0 0 0 0 0 0 0 0 0 0 0 0 0 0 0 0 0 0 2 0 10 17 39 23 0 0 0 0 0 0 0 0 0 0 0 0 0 1 2 0 3 8 2
0 0 0 0 0 0 0 0 0 0 0 0 0 0 0 0 0 0 0 9 1 0 7 64 27 37 0 0 0 0 0 0 0 0 0 0 0 0 0 0 0 0 0 0
0 0 0 0 0 0 0 0 0 0 0 0 0 0 0 0 0 0 0 1 26 61 59 80 79 104 5 0 0 0 0 0 0 0 0 0 0 0 0 0 0 0 0 0
0 0 0 0 0 0 0 0 0 0 0 0 0 0 0 0 0 0 0 0 3 115 125 155 181 197 129 0 0 0 0 0 0 0 0 0 0 0 0 0 0 0 0 0
0 0 0 0 0 0 0 0 0 0 0 0 0 0 0 0 0 0 0 0 0 38 206 196 215 309 249 90 0 0 0 0 0 0 0 0 0 0 0 0 0 0 0 0
0 0 0 0 0 0 0 0 0 0 0 0 0 0 0 0 0 0 0 0 10 28 159 216 262 322 390 282 45 0 0 0 0 0 0 0 0 0 0 0 0 0 0 1
0 0 0 0 0 0 0 0 0 0 0 0 0 0 0 0 0 0 0 60 23 47 120 196 315 317 433 367 301 75 17 0 0 0 0 0 0 0 0 0 6 3 15 34
0 0 0 0 0 0 0 0 0 0 0 0 0 0 0 0 0 0 0 0 57 98 133 223 421 334 367 330 372 410 68 50 4 0 0 0 0 0 0 0 0 11 22 92
0 0 0 0 0 0 0 0 0 0 0 0 0 0 0 0 0 0 0 0 0 56 142 185 356 358 358 224 239 406 353 153 21 0 0 0 0 0 0 0 2 28 93 83
2 0 0 0 0 0 0 0 0 0 0 0 0 0 0 0 0 0 0 0 1 14 8 31 118 207 237 216 311 431 471 509 329 38 8 0 8 0 1 1 36 93 94 106
13 0 0 0 0 0 0 0 0 0 0 0 0 0 0 0 0 0 0 0 0 0 9 39 107 162 216 299 376 425 465 489 523 396 134 34 44 20 15 36 60 114 235 184
3 0 3 0 0 0 0 0 0 0 0 0 0 0 0 0 0 0 0 0 3 7 0 29 56 113 188 318 358 388 397 465 492 512 393 195 137 147 181 175 143 109 216 201
0 1 0 0 1 0 0 0 0 0 0 0 0 0 0 0 0 0 0 3 17 5 4 1 41 79 134 179 211 298 374 427 460 487 442 340 296 250 372 362 301 99 95 128
9 9 5 0 5 1 0 0 0 0 0 0 0 0 0 0 0 2 0 1 3 20 23 6 3 77 201 235 251 278 292 358 446 577 537 475 356 281 316 332 275 203 177 225
0 0 10 0 0 3 0 2 0 0 0 0 0 0 0 0 0 1 0 0 0 0 10 4 0 59 199 248 268 291 390 372 412 527 625 495 424 394 171 113 238 231 230 214
32 0 0 0 1 0 0 0 2 2 0 0 0 0 0 0 0 0 0 0 0 0 0 14 5 54 140 202 222 261 337 539 521 589 631 505 267 192 133 278 227 157 260 180
80 46 13 0 1 0 0 0 0 0 0 0 0 0 0 0 0 0 0 0 0 0 0 8 19 76 143 157 201 242 330 478 717 659 391 234 136 118 137 110 114 114 72 64
28 44 22 34 0 0 0 0 8 0 0 0 0 0 0 0 0 0 0 0 0 0 0 0 42 99 180 226 242 289 350 411 451 459 308 198 214 183 85 88 255 92 74 45
7 11 9 56 39 2 0 29 14 1 4 1 23 1 0 0 0 0 0 0 0 0 21 29 65 99 147 250 321 367 413 403 425 388 302 181 142 49 4 72 58 41 1 0
29 15 12 27 9 6 0 0 0 0 2 21 29 12 0 2 1 11 8 0 0 29 82 107 97 108 167 238 336 386 384 418 512 258 127 35 0 3 15 32 0 0 0 0
2 7 10 22 0 0 0 0 4 80 68 42 23 10 15 18 4 20 27 3 10 24 56 117 176 175 217 323 427 447 321 133 32 1 0 0 0 3 2 0 0 0 0 0
0 5 0 0 0 1 27 43 20 99 132 57 22 38 5 12 1 5 7 11 19 8 11 43 88 135 138 124 97 59 7 0 0 0 0 0 0 0 0 0 0 0 0 0
10 23 7 4 4 6 0 52 16 48 59 28 11 8 0 0 0 0 2 1 7 36 6 14 34 33 12 9 2 0 0 0 0 0 0 0 0 0 0 0 0 0 0 0

GFSCGP_con_mucape_072.txt.gz
CAPE
0 0 0 0 0 0 0 0 0 0 0 0 0 0 0 0 0 0 0 0 11 108 19 20 27 0 1 0 0 0 11 2 6 14 9 2 4 51 42 15 5 1 1 0
0 0 0 0 0 0 0 0 0 0 0 0 0 0 0 0 0 0 0 0 0 9 5 17 28 1 4 2 0 0 0 1 0 11 17 25 23 23 5 26 19 29 26 10
0 0 0 0 0 0 0 0 0 0 0 0 0 0 0 0 0 0 0 0 0 0 0 7 21 12 2 0 0 0 0 5 3 16 25 12 8 34 0 51 52 46 66 66
0 0 0 0 0 0 0 0 0 0 0 0 0 0 0 0 0 0 0 0 0 0 0 0 12 0 0 0 0 0 0 0 1 1 2 4 11 0 2 3 15 33 59 57
0 0 0 0 0 0 0 0 0 0 0 0 0 0 0 0 0 0 0 0 0 0 0 0 1 4 4 0 0 0 0 0 0 0 1 5 0 0 0 3 7 4 41 31
0 0 0 0 0 0 0 0 0 0 0 0 0 0 0 0 0 0 0 0 0 0 0 0 0 9 28 0 0 0 0 0 0 0 0 1 0 0 0 0 0 0 0 1
0 0 0 0 0 0 0 0 0 0 0 0 0 0 0 0 0 0 0 0 0 0 0 4 39 41 38 27 0 0 0 0 0 0 0 0 0 0 0 0 0 0 0 0
0 0 0 0 0 0 0 0 0 0 0 0 0 0 0 0 0 0 0 0 0 0 0 0 50 110 123 128 5 0 0 0 0 0 0 0 0 0 0 0 0 0 0 0
0 0 0 0 0 0 0 0 0 0 0 0 0 0 0 0 0 0 0 0 0 0 0 1 53 119 147 180 189 0 0 0 0 0 0 0 0 0 0 0 0 0 0 0
0 0 0 0 0 0 0 0 0 0 0 0 0 0 0 0 0 0 0 0 0 0 3 6 28 125 197 190 288 262 32 0 0 0 0 0 0 0 0 0 0 0 0 0
0 0 0 0 0 0 0 0 0 0 0 0 0 0 0 0 0 0 0 0 0 0 11 9 11 70 177 247 251 389 324 100 0 0 0 0 0 0 0 0 0 0 0 0
0 0 0 0 0 0 0 0 0 0 0 0 0 0 0 0 0 0 0 0 0 0 32 26 44 63 109 178 310 276 395 333 228 14 0 0 0 0 0 0 0 0 0 0
0 0 0 0 0 0 0 0 0 0 0 0 0 0 0 0 0 0 0 0 0 0 3 33 79 123 138 163 254 258 291 295 306 305 42 0 0 0 1 0 0 0 0 0
9 7 0 0 0 0 0 0 0 0 0 0 0 0 0 0 0 0 0 0 2 2 0 0 17 27 91 147 191 181 214 166 245 371 407 54 26 11 11 4 3 13 6 0
7 2 0 1 2 0 0 0 0 0 0 0 0 0 0 0 0 0 0 0 0 7 3 8 7 40 60 73 122 154 147 174 247 307 382 419 244 36 22 14 18 21 21 21
18 0 8 0 2 0 0 0 0 0 0 0 0 0 0 0 0 0 0 0 0 0 5 3 1 10 59 107 127 153 173 175 193 227 285 376 371 303 181 51 55 36 46 79
6 3 2 0 0 3 0 0 0 0 0 0 0 0 0 0 0 0 0 0 0 0 15 29 3 0 31 58 127 201 207 185 189 193 228 330 436 373 243 179 125 108 99 149
0 34 2 0 0 0 0 0 0 0 0 0 0 0 0 0 0 0 0 0 0 0 0 0 18 7 18 50 86 103 194 227 203 220 239 260 344 362 303 219 162 145 201 695
26 16 1 0 2 0 0 0 0 0 0 0 0 0 0 0 0 0 0 0 0 0 0 0 4 31 26 30 103 159 173 189 223 236 242 231 267 344 356 224 171 348 171 149
6 13 24 1 0 0 0 0 0 0 0 0 0 0 0 0 0 0 0 0 0 0 0 0 8 9 29 30 119 207 223 253 251 251 262 259 314 366 342 246 160 90 43 149
2 36 0 26 1 0 0 0 7 0 0 0 1 0 0 0 0 0 0 1 0 2 0 0 1 0 12 35 108 237 226 228 253 317 377 437 411 232 146 117 111 66 37 76
12 8 11 24 0 0 0 77 91 5 48 1 19 13 0 0 0 0 0 0 0 0 5 0 0 0 0 3 111 219 256 285 296 336 367 412 324 230 120 31 28 11 24 75
3 0 0 6 0 0 0 0 0 0 0 0 1 2 6 2 0 0 0 0 0 0 3 36 1 1 54 130 198 220 241 307 382 415 425 303 307 76 82 25 14 26 18 63
31 32 19 14 0 0 0 0 0 0 9 14 8 16 43 2 9 16 18 27 23 3 2 50 64 60 43 65 144 195 303 353 368 316 214 97 127 9 9 9 7 27 35 67
0 2 0 0 0 0 0 0 0 0 2 12 48 11 7 25 13 12 6 9 25 9 10 0 1 77 136 158 239 268 256 274 175 79 8 2 13 12 10 8 7 9 7 1
5 0 0 0 0 0 0 0 7 6 4 19 23 33 1 2 5 0 8 10 7 1 0 1 0 18 68 72 94 65 26 4 0 0 0 0 0 12 16 8 4 1 3 0

GFSCGP_con_mucape_075.txt.gz
CAPE
0 0 0 0 0 0 0 0 0 0 0 0 0 0 0 0 0 0 0 18 71 95 73 66 29 8 0 2 3 0 13 3 0 5 3 1 0 19 26 42 4 17 29 18
0 0 0 0 0 0 0 0 0 0 0 0 0 0 0 0 0 0 0 0 7 4 59 21 8 5 1 3 5 0 0 4 0 0 1 5 3 12 33 43 8 14 7 4
0 0 0 0 0 0 0 0 0 0 0 0 0 0 0 0 0 0 0 0 0 0 4 4 0 0 0 1 2 0 0 0 0 0 2 4 6 5 3 5 0 0 1 3
0 0 0 0 0 0 0 0 0 0 0 0 0 0 0 0 0 0 0 0 0 0 0 0 0 0 0 0 1 0 0 0 0 2 4 4 6 0 0 0 0 0 0 17
0 0 0 0 0 0 0 0 0 0 0 0 0 0 0 0 0 0 0 0 0 0 0 0 0 0 0 0 3 0 0 0 0 0 0 8 26 9 1 0 0 0 0 1
0 0 0 0 0 0 0 0 0 0 0 0 0 0 0 0 0 0 0 0 0 0 0 0 0 0 0 0 2 0 0 0 0 0 0 7 15 7 0 0 3 9 5 5
0 0 0 0 0 0 0 0 0 0 0 0 0 0 0 0 0 0 0 0 0 0 0 0 0 0 0 0 0 0 0 0 0 0 0 0 0 3 1 0 0 5 0 6
0 0 0 0 0 0 0 0 0 0 0 0 0 0 0 0 0 0 0 0 0 0 0 0 0 5 34 6 0 0 0 0 0 0 0 0 0 0 0 0 0 0 0 1
0 0 0 0 0 0 0 0 0 0 0 0 0 0 0 0 0 0 0 0 0 0 0 0 0 8 58 92 44 0 0 0 0 0 0 0 0 0 0 0 0 0 0 0
0 0 0 0 0 0 0 0 0 0 0 0 0 0 0 0 0 0 0 0 0 0 0 0 0 2 54 91 106 102 0 0 0 0 0 0 0 0 0 0 0 0 0 0
0 0 0 0 0 0 0 0 0 0 0 0 0 0 0 0 0 0 0 0 0 0 0 0 0 0 31 81 139 146 210 95 4 0 0 0 0 0 0 0 0 0 0 0
0 0 0 0 0 0 0 0 0 0 0 0 0 0 0 0 0 0 0 0 0 0 0 0 5 2 7 35 89 167 218 271 255 86 0 0 0 0 0 0 0 0 0 0
0 0 0 0 0 0 0 0 0 0 0 0 0 0 0 0 0 0 0 0 0 0 0 0 10 13 24 27 45 91 120 245 277 327 258 42 4 0 0 0 0 0 0 0
8 4 0 0 0 0 0 0 0 0 0 0 0 0 0 0 0 0 0 0 0 0 3 0 11 30 46 65 84 68 78 127 212 256 333 325 263 32 9 0 0 0 0 0
0 0 1 0 0 0 0 0 0 0 0 0 0 0 0 0 0 0 0 0 0 0 0 0 0 0 47 38 39 54 81 105 115 169 192 234 273 330 55 20 2 3 0 14
0 0 1 0 0 0 0 0 0 0 0 0 0 0 0 0 0 0 0 0 0 0 0 0 0 0 0 22 18 35 60 78 78 102 127 172 253 339 355 246 36 12 12 22
0 8 0 0 2 3 0 0 0 0 0 0 0 0 0 0 0 0 0 0 0 0 0 0 0 0 6 6 40 60 73 78 77 55 55 74 141 260 331 321 307 231 90 36
0 0 34 0 5 0 0 0 0 0 0 0 0 0 0 0 0 0 0 0 0 0 0 0 0 0 0 15 23 83 70 110 126 123 104 95 104 168 290 328 296 259 229 195
0 0 36 0 0 0 0 0 0 0 0 0 0 0 0 0 0 0 0 0 0 0 0 0 0 0 0 1 31 14 9 109 150 169 180 146 138 150 187 256 283 264 229 179
0 1 45 0 0 0 0 0 2 0 0 0 0 8 1 0 0 0 0 0 0 0 0 0 0 0 1 24 48 54 33 74 110 142 186 193 200 214 199 239 272 277 121 88
0 0 0 0 0 0 0 0 115 10 0 0 0 0 9 20 3 0 0 0 0 0 0 0 0 2 0 16 30 43 47 106 135 133 155 185 196 223 240 223 238 158 143 119
0 0 0 0 0 0 0 59 68 7 0 0 0 0 0 0 37 7 0 0 0 0 0 0 0 0 1 0 1 9 71 152 164 179 222 244 279 294 232 275 183 103 71 1
2 2 25 4 1 0 24 12 2 0 0 0 0 0 0 0 0 18 7 3 0 0 0 8 22 0 0 1 0 2 67 152 190 193 247 275 234 293 200 268 229 94 21 10
0 0 0 0 0 0 0 0 3 3 0 0 0 0 0 4 7 1 14 3 0 0 0 5 25 56 26 39 93 148 156 164 178 237 197 265 190 172 212 39 27 39 15 23
0 0 0 0 0 0 0 0 0 0 0 0 0 0 2 13 18 3 0 0 0 3 0 5 10 32 73 21 50 104 144 110 79 53 130 94 10 7 1 2 3 8 3 5
0 0 0 0 0 0 0 0 0 0 0 0 0 1 13 16 32 34 40 8 5 0 1 2 3 0 28 62 69 44 6 15 12 10 0 0 0 0 0 0 0 0 0 4

GFSCGP_con_mucape_078.txt.gz
CAPE
0 0 0 0 0 0 0 0 0 0 0 0 0 0 0 0 0 0 0 34 86 302 465 177 121 22 0 7 19 26 1 1 3 5 0 0 4 2 4 0 1 1 0 17
0 0 0 0 0 0 0 0 0 0 0 0 0 0 0 0 0 0 0 9 68 200 468 112 39 4 0 7 14 17 0 0 0 0 3 2 0 2 3 1 10 5 3 7
1 0 0 0 0 0 0 0 0 0 0 0 0 0 0 0 0 0 0 0 14 155 392 169 11 2 5 6 7 1 0 0 0 0 0 3 4 0 0 0 0 8 1 7
0 0 0 0 0 0 0 0 0 0 0 0 0 0 0 0 0 0 0 0 11 35 224 220 43 0 3 3 5 0 0 0 0 0 0 4 3 0 0 2 1 0 7 11
0 0 0 0 0 0 0 0 0 0 0 0 0 0 0 0 0 0 0 0 0 12 135 185 95 12 0 2 4 1 0 0 0 1 0 7 10 9 2 0 0 2 0 29
0 0 0 0 0 0 0 0 0 0 0 0 0 0 0 0 0 0 0 0 0 15 43 168 121 40 0 1 12 11 1 0 0 0 0 3 13 14 3 1 0 1 2 3
0 0 0 0 0 0 0 0 0 0 0 0 0 0 0 0 0 0 0 0 0 0 43 172 158 82 10 0 2 9 8 0 0 4 0 0 1 0 3 1 3 0 0 0
0 0 0 0 0 0 0 0 0 0 0 0 0 0 0 0 0 0 0 0 0 0 29 122 154 117 44 0 0 4 2 7 10 0 21 26 17 2 21 61 47 14 5 5
0 0 0 0 0 0 0 0 0 0 0 0 0 0 0 0 0 0 0 0 0 0 15 127 139 154 102 5 0 1 0 0 7 13 18 21 49 37 39 33 50 27 10 24
0 0 0 0 0 0 0 0 0 0 0 0 0 0 0 0 0 0 0 0 0 0 0 76 152 170 144 49 3 0 0 0 0 6 13 10 15 22 28 41 45 48 53 53
0 0 0 0 0 0 0 0 0 0 0 0 0 0 0 0 0 0 0 0 0 0 50 59 103 146 171 123 41 28 0 0 1 1 5 4 6 14 20 39 31 20 41 24
0 0 0 0 0 0 0 0 0 0 0 0 0 0 0 0 0 3 4 0 0 0 49 189 175 136 157 178 104 39 39 48 35 5 2 36 6 3 18 89 71 76 52 38
0 0 0 0 0 0 0 0 0 0 0 0 0 0 0 0 0 0 0 0 0 0 1 113 343 315 241 196 175 115 88 109 120 89 62 5 10 5 1 1 5 9 9 26
6 40 2 0 1 0 0 0 0 0 0 0 0 0 0 0 0 0 0 0 0 3 2 10 249 427 433 286 222 158 127 78 111 147 171 189 81 35 5 0 0 6 3 1
8 4 0 1 0 0 0 0 0 0 0 0 0 0 0 0 0 0 0 0 0 0 0 1 26 334 477 495 380 251 183 107 82 90 156 191 255 255 124 15 12 5 1 0
2 0 9 10 0 0 0 0 0 0 0 0 0 0 0 0 0 0 0 0 0 0 0 0 0 4 149 422 526 373 271 181 101 82 160 135 183 265 286 283 197 52 17 0
0 28 5 0 7 3 0 0 0 0 21 34 36 2 0 0 0 0 0 0 0 0 0 0 0 0 9 82 346 485 337 224 149 140 136 131 127 157 189 224 256 287 97 40
0 7 16 0 4 0 0 0 0 22 0 11 0 0 11 12 5 1 0 0 0 0 0 0 0 0 3 19 95 341 344 227 181 173 174 137 110 77 90 233 287 308 290 257
0 14 0 0 0 0 0 0 0 0 0 18 20 15 43 30 48 38 0 0 0 0 0 0 0 0 0 0 8 122 338 304 199 164 143 120 110 90 73 130 203 257 275 272
2 10 12 0 0 0 1 29 72 1 0 1 0 0 0 11 126 85 2 1 0 0 0 0 0 0 0 0 2 8 159 289 273 207 174 138 102 102 97 79 116 210 258 251
0 14 0 0 0 17 19 16 92 23 56 0 0 0 0 0 2 2 9 2 0 0 0 0 0 0 0 0 7 19 44 147 258 294 249 158 124 96 79 118 134 149 144 162
2 0 0 1 0 0 32 33 24 19 1 11 13 9 17 3 1 1 11 11 3 2 0 0 1 0 0 0 10 64 124 129 153 140 118 112 135 130 139 174 194 197 139 115
15 19 28 31 24 48 49 5 0 6 14 11 34 36 14 31 28 27 29 20 10 17 0 0 0 0 0 0 0 8 1 0 5 54 89 128 124 124 151 149 126 195 194 151
10 22 54 16 26 23 8 2 0 0 0 1 0 0 8 18 95 122 76 24 0 13 7 1 1 0 22 19 40 28 17 8 57 122 192 214 231 196 141 128 84 132 139 98
17 13 4 4 0 0 6 0 0 0 1 0 0 0 0 0 1 1 8 2 17 3 0 0 7 9 6 84 52 90 133 168 199 236 205 161 150 160 113 52 45 1 3 5
14 13 6 0 6 0 0 4 0 0 0 0 0 0 0 1 0 0 7 7 10 17 41 1 0 0 0 14 36 70 126 112 164 101 112 77 42 2 1 0 0 0 0 0

GFSCGP_con_mucape_081.txt.gz
CAPE
0 0 0 0 0 0 0 0 0 14 0 0 0 0 0 0 0 0 0 0 5 40 257 585 505 343 196 23 3 15 25 0 11 0 15 3 5 0 9 0 6 4 0 40
0 0 0 0 0 0 0 0 0 0 0 0 0 0 0 0 0 0 0 0 5 7 91 586 550 424 187 16 4 7 23 0 0 6 1 0 0 0 2 3 3 3 3 36
0 0 0 0 0 0 0 0 0 0 0 0 0 0 0 0 0 0 0 0 0 2 34 616 516 457 230 60 4 7 8 2 0 7 2 0 2 0 0 1 0 0 0 85
0 1 0 0 0 0 0 0 0 0 0 0 0 0 0 0 0 0 0 0 0 0 2 446 506 369 310 102 3 8 5 1 0 0 0 0 2 0 2 2 2 0 0 61
0 0 0 0 0 0 0 0 0 0 0 0 0 0 0 0 0 0 0 0 0 0 0 298 527 359 220 117 3 7 7 9 0 0 1 0 1 4 4 0 0 2 2 2
0 0 1 0 0 0 0 0 0 0 0 0 0 0 0 0 0 1 0 0 0 0 0 163 455 330 247 147 2 5 14 0 0 0 0 27 15 7 2 1 2 0 1 0
0 0 0 0 0 0 0 0 0 0 0 0 0 0 0 0 0 0 0 0 0 0 0 40 362 352 228 125 4 0 7 4 17 0 0 24 58 7 8 2 0 1 1 0
0 0 0 0 0 0 0 0 0 0 0 15 8 0 0 0 0 0 0 0 0 0 0 0 269 397 250 132 34 2 1 8 12 0 0 23 42 39 35 3 5 0 0 0
0 0 0 0 0 0 0 0 0 0 0 0 8 5 5 0 0 0 0 0 0 0 0 0 149 435 304 201 71 8 20 23 16 13 17 28 57 40 31 22 7 0 6 7
0 0 0 0 0 0 0 0 0 0 0 0 0 0 0 1 0 0 0 2 0 0 0 15 95 423 400 330 128 26 0 34 38 33 20 14 38 46 58 56 57 63 76 66
0 0 0 0 0 0 0 0 0 0 0 0 0 0 4 5 0 1 20 6 0 0 11 31 215 341 452 426 246 75 2 1 44 65 65 153 138 108 122 269 283 203 140 50
0 0 0 0 3 17 5 0 0 0 0 0 0 1 0 0 0 0 35 4 0 0 5 111 137 315 424 492 397 259 39 0 104 73 149 326 415 307 253 219 317 394 226 54
0 0 0 0 9 7 0 0 20 37 15 0 0 0 8 0 1 0 2 1 24 19 13 53 325 326 401 497 545 409 283 74 19 29 141 421 451 310 345 357 311 248 222 101
3 8 51 3 37 15 0 22 8 3 0 0 0 0 6 3 3 0 0 0 0 0 12 9 103 443 446 466 602 609 543 468 151 33 133 268 439 308 286 405 341 308 132 126
8 2 28 46 37 4 24 60 64 86 68 0 51 42 36 14 1 3 0 0 0 0 0 2 3 67 468 619 571 629 699 718 435 241 146 232 529 325 150 192 243 300 295 228
2 0 3 0 0 0 0 0 16 0 17 11 7 5 11 25 34 0 0 0 0 0 0 0 1 6 34 549 760 650 637 724 721 688 662 280 339 279 244 291 262 191 204 197
5 1 1 0 15 4 12 0 0 0 1 8 38 34 5 0 0 0 0 0 0 0 0 0 2 15 14 24 501 818 811 676 762 729 566 555 534 398 370 234 194 232 225 181
0 0 1 0 10 0 0 23 7 19 12 66 70 42 16 5 5 10 11 0 0 0 0 0 0 0 8 11 40 333 692 835 745 615 562 605 753 693 530 390 276 272 316 287
19 11 0 0 0 0 5 15 16 3 56 87 71 66 57 39 33 123 31 32 9 0 0 0 10 11 8 3 0 34 202 558 757 797 767 687 787 747 741 676 573 476 360 296
25 27 11 0 0 0 3 45 31 20 43 63 52 34 18 2 31 98 3 4 28 27 4 0 1 89 99 47 42 5 14 149 623 799 791 633 695 761 687 705 732 604 351 248
30 36 0 0 0 8 68 23 31 17 70 13 26 34 38 28 22 0 0 0 19 29 23 18 27 54 12 0 18 87 51 50 97 541 739 652 544 420 511 550 594 423 134 137
16 0 0 0 0 0 10 35 76 81 41 43 28 23 5 20 44 28 0 8 47 52 17 18 47 22 0 0 0 50 194 95 96 292 493 484 546 277 223 355 148 146 87 86
4 19 53 18 31 138 207 39 78 44 49 44 27 5 0 1 22 86 110 136 112 60 27 6 38 10 4 0 16 5 5 30 98 126 222 344 277 233 150 105 101 78 103 139
70 11 84 76 136 46 16 26 25 9 9 1 0 0 0 0 0 0 8 2 3 0 0 0 0 0 7 9 3 54 81 29 0 0 2 58 106 87 83 76 95 93 125 117
42 67 46 31 13 21 91 27 0 0 0 1 0 0 0 0 0 0 0 0 0 0 0 0 4 0 0 0 2 25 83 90 153 127 107 98 132 143 114 152 134 157 112 98
50 77 60 97 18 36 26 0 0 3 0 0 0 0 0 0 0 0 0 0 0 0 0 0 1 5 0 9 11 2 22 48 187 422 300 398 297 253 215 215 232 97 48 1

GFSCGP_con_mucape_084.txt.gz
CAPE
0 25 0 0 0 0 0 0 0 0 0 0 0 0 0 0 0 0 0 0 0 10 38 372 472 397 268 215 12 5 12 14 17 0 0 0 3 0 0 0 3 12 6 4
0 0 9 10 0 0 6 2 0 0 0 0 0 0 0 0 0 0 0 0 0 5 13 467 580 445 345 74 0 0 6 11 0 0 0 0 6 0 0 4 3 3 5 8
0 0 0 0 0 0 1 1 0 0 0 0 0 0 0 0 0 0 0 0 0 0 12 555 673 529 365 28 0 1 5 6 0 0 1 0 0 28 6 0 1 3 1 1
0 0 0 0 0 0 0 0 0 0 0 0 0 0 0 0 0 0 0 0 0 0 4 436 676 539 379 66 0 0 1 2 0 0 0 1 0 0 0 0 2 2 0 0
0 0 0 0 0 0 0 0 0 0 0 0 0 0 0 0 0 0 0 0 0 0 0 189 736 546 441 117 0 0 2 7 0 0 0 0 0 3 0 2 4 0 0 0
0 0 0 0 0 0 0 0 0 0 0 0 0 0 0 0 0 0 0 0 0 0 0 0 718 473 305 98 0 0 1 4 4 0 0 0 0 3 2 1 0 6 7 1
0 0 0 0 0 0 0 0 0 0 0 0 0 0 0 0 0 0 0 1 0 0 0 0 542 402 231 112 0 0 3 3 4 0 0 0 0 4 1 7 4 0 0 0
0 0 0 0 0 0 0 0 0 0 0 0 0 0 0 0 0 0 0 0 0 0 0 0 366 409 256 177 0 0 4 3 4 4 0 1 0 0 0 1 0 0 0 0
0 0 0 0 0 0 0 0 0 0 0 0 5 0 2 0 0 0 0 0 0 0 0 0 118 422 271 174 7 0 0 3 3 4 3 2 5 0 0 0 4 5 10 5
0 0 0 0 0 0 0 0 0 0 0 0 10 6 2 0 0 0 0 9 6 0 0 2 0 511 346 204 118 0 0 0 0 3 4 4 12 19 3 2 0 0 2 9
0 0 0 0 0 0 0 0 0 0 0 0 0 3 0 7 11 35 37 8 6 6 18 17 1 535 455 357 244 29 0 0 1 0 2 0 11 17 2 3 0 0 0 0
8 0 0 0 0 0 17 0 0 0 0 0 0 0 0 0 0 4 5 0 13 9 13 75 126 230 522 506 352 171 6 0 10 9 0 2 9 9 4 15 12 0 0 0
3 0 0 0 0 0 0 0 0 0 0 0 0 5 0 2 0 0 1 0 0 0 5 64 219 210 445 530 487 288 148 10 0 60 26 5 1 4 7 13 16 8 0 0
4 0 0 0 0 0 0 0 32 4 0 0 0 0 0 0 0 0 0 0 0 0 0 1 96 330 327 480 586 514 428 169 21 7 92 61 47 47 10 0 5 44 31 13
6 1 0 0 0 0 4 0 4 1 0 0 0 0 0 4 0 6 0 0 0 0 0 0 0 5 392 408 591 632 567 509 241 63 13 78 89 84 95 92 40 8 35 47
4 2 0 0 6 0 0 0 0 0 0 22 36 1 33 37 3 9 0 0 0 0 0 2 0 0 0 14 491 506 650 694 460 367 163 55 97 149 107 66 71 61 66 46
6 0 1 0 0 0 0 10 17 0 0 2 0 36 31 30 1 0 0 8 0 0 0 0 0 0 0 1 2 626 649 712 742 554 462 301 123 121 209 107 64 92 91 96
1 9 1 0 0 0 0 20 33 36 29 29 39 47 2 2 2 30 3 0 2 5 4 1 6 11 33 2 9 15 123 690 689 713 701 618 483 242 178 181 109 92 107 126
1 5 1 0 0 0 0 0 1 2 6 129 97 21 7 6 12 66 31 4 0 0 0 0 0 9 22 12 4 2 41 27 667 752 742 736 620 505 370 219 193 147 103 89
7 35 39 0 0 0 0 0 19 14 9 22 11 0 0 0 24 11 7 5 0 6 20 2 12 0 0 0 0 0 68 88 72 83 702 691 595 589 568 462 379 247 147 120
18 52 0 0 0 3 8 22 8 35 71 23 9 0 5 0 0 24 48 17 9 57 69 36 45 8 0 0 0 0 43 106 42 37 80 530 676 583 562 586 542 518 361 234
16 0 0 0 0 0 46 47 71 92 49 17 24 0 0 0 0 10 36 67 66 58 20 15 24 19 0 0 0 0 0 17 56 63 57 130 581 548 552 607 542 482 450 415
34 5 14 0 3 26 154 153 60 44 55 5 0 0 4 1 0 0 0 4 22 3 0 0 0 0 0 0 0 0 5 0 18 27 26 122 260 451 455 365 388 405 366 373
89 44 15 45 40 52 2 13 10 4 0 0 0 0 0 0 0 0 0 0 0 0 0 0 0 0 0 0 0 0 0 3 4 46 77 14 97 250 353 345 333 340 344 307
18 8 35 67 12 0 0 1 0 0 0 0 0 0 0 0 0 0 0 0 0 0 0 0 0 0 0 0 0 0 0 0 0 21 76 131 110 50 54 134 248 302 295 281
10 9 97 92 6 0 1 0 0 0 0 0 0 0 0 0 0 0 0 0 0 0 0 0 0 0 0 0 0 0 2 0 0 0 13 74 82 137 112 76 112 62 59 141

GFSCGP_con_mucape_087.txt.gz
CAPE
0 0 0 0 0 1 38 11 0 0 0 0 0 0 0 0 0 0 0 0 0 0 0 0 35 34 48 36 14 0 0 0 1 0 0 0 0 0 0 0 8 22 22 30
0 0 0 0 1 11 0 0 0 0 0 0 0 0 0 0 0 0 0 0 0 0 0 5 83 84 100 95 8 0 0 0 2 0 0 0 0 0 0 0 0 8 13 31
0 0 0 0 0 0 0 0 0 0 0 0 0 0 0 0 0 0 0 0 0 0 1 47 102 105 129 135 13 0 0 0 0 11 8 0 0 0 0 0 0 5 21 35
0 0 0 0 0 0 0 0 0 0 0 0 0 0 0 0 0 0 0 0 0 0 1 116 124 133 161 164 26 0 0 0 0 12 7 0 0 0 0 2 5 7 11 16
0 0 0 0 0 0 0 0 0 0 0 2 0 0 0 0 0 0 0 0 0 0 51 207 185 213 199 159 32 0 0 0 4 0 7 0 0 0 0 9 0 11 15 4
0 0 0 0 0 0 0 0 0 0 0 0 0 0 0 0 0 0 0 0 0 0 97 266 276 283 228 162 60 0 0 1 4 0 4 0 0 0 0 0 0 9 5 2
0 0 0 0 0 0 0 0 0 0 0 0 0 0 0 0 0 0 0 0 0 0 4 277 326 325 261 183 85 0 0 1 12 0 1 0 0 0 0 1 8 11 9 0
0 0 0 0 0 0 0 0 0 0 0 0 0 0 0 0 0 0 0 0 0 0 33 358 398 312 292 177 42 6 0 0 1 2 1 2 3 0 0 0 3 12 14 2
0 0 0 0 0 0 0 0 0 0 0 0 0 0 0 0 0 0 0 0 0 0 219 422 455 315 243 151 40 0 0 0 1 4 3 2 2 0 0 0 0 0 0 11
0 0 0 0 0 0 0 0 0 0 0 0 0 0 0 0 0 0 0 0 0 0 8 344 354 314 223 161 59 3 0 0 0 6 2 3 2 1 0 0 0 0 0 0
0 0 0 0 0 0 0 0 0 0 0 0 0 6 4 0 0 0 0 4 2 4 12 1 352 336 268 197 94 33 10 0 0 0 5 3 9 0 0 0 0 0 0 0
0 3 0 0 0 0 0 0 0 0 0 0 0 1 0 0 0 0 14 6 8 0 44 54 322 363 303 205 149 89 44 0 0 0 0 1 4 6 3 0 0 1 0 0
2 5 0 0 0 0 0 0 0 0 0 0 0 0 0 0 0 0 0 2 0 4 10 2 289 359 291 207 205 191 145 90 35 0 0 0 1 4 9 3 1 2 0 0
7 12 0 0 0 0 0 0 0 0 0 0 0 0 1 0 0 0 0 0 0 0 0 0 7 140 372 284 259 275 266 231 216 63 3 0 0 0 1 9 5 3 2 2
0 0 1 0 0 0 0 0 0 3 0 0 0 0 0 0 0 0 0 0 0 0 1 0 0 0 6 132 402 371 350 340 299 247 87 45 38 14 0 0 0 0 7 15
0 0 0 0 0 0 0 0 0 0 3 0 0 0 16 0 0 0 0 0 0 0 0 0 0 0 1 0 0 127 514 459 416 352 317 295 163 96 76 41 10 20 33 31
0 0 0 0 0 0 0 2 0 0 12 2 0 11 43 0 2 0 0 0 0 0 0 0 2 14 10 23 4 93 211 492 585 511 467 431 395 343 228 112 74 43 20 32
0 0 0 0 0 0 36 34 39 49 56 71 90 61 51 30 12 10 0 0 0 0 0 0 0 0 0 16 29 1 9 45 343 681 589 585 492 384 312 189 166 126 122 115
0 0 0 0 0 0 0 7 0 21 27 40 48 13 23 7 5 13 24 8 0 1 0 1 2 0 0 0 0 0 9 16 11 154 618 664 681 512 424 362 333 251 146 118
0 0 1 0 0 0 0 0 7 28 0 12 0 0 19 15 5 1 13 27 0 0 0 0 0 0 0 0 0 0 0 4 35 9 89 519 599 575 577 502 486 434 360 267
0 0 0 0 0 0 0 0 10 31 2 1 0 0 0 0 3 0 0 3 4 0 0 0 0 0 0 0 0 0 0 0 0 0 7 28 122 188 520 592 569 500 454 331
0 0 0 0 0 0 65 19 32 5 15 2 0 0 8 11 1 0 0 0 0 4 3 0 0 0 0 0 0 0 0 0 0 0 0 4 17 63 242 526 516 492 570 569
0 0 0 0 0 27 34 40 28 18 8 1 0 7 4 0 0 0 0 0 0 0 0 0 0 0 0 0 0 0 0 0 0 0 0 0 0 3 53 256 421 466 507 535
0 18 10 6 36 36 14 13 21 16 11 3 15 9 0 0 0 0 0 0 0 0 0 0 0 0 0 0 0 0 0 0 0 0 0 0 0 0 7 17 158 297 417 434
30 3 9 19 2 9 10 0 7 12 4 1 0 0 0 0 0 0 0 0 0 0 0 0 0 0 0 0 0 0 0 0 0 0 0 0 0 0 4 47 28 36 123 141
0 0 7 1 0 0 0 0 0 0 0 0 0 0 0 0 0 0 0 0 0 0 0 0 0 0 0 0 0 0 0 0 0 0 0 2 0 0 0 1 85 11 0 36

GFSCGP_con_mucape_090.txt.gz
CAPE
0 0 0 0 0 0 0 0 0 0 0 0 0 0 0 0 0 0 0 0 0 0 0 0 37 183 161 149 157 74 46 9 0 0 0 0 0 0 4 1 3 50 67 85
0 0 0 0 0 0 0 0 0 0 0 0 0 0 0 0 0 0 0 0 0 0 0 0 66 123 150 126 137 73 42 1 0 0 0 0 0 0 0 0 0 7 46 73
0 0 0 0 0 0 0 0 0 0 0 0 0 0 0 0 0 0 0 0 0 0 0 0 78 126 128 103 102 102 52 0 0 0 2 3 1 0 0 0 0 0 10 62
0 0 0 0 0 0 0 0 0 0 0 0 0 0 0 0 0 0 0 0 0 0 0 0 57 106 117 119 136 132 30 0 0 0 1 0 0 0 0 0 0 3 5 17
0 0 0 0 0 0 0 0 0 0 0 0 0 0 0 0 0 0 0 0 0 0 0 0 30 92 117 143 144 126 27 0 0 0 0 0 0 0 0 0 0 2 0 0
0 0 0 0 0 0 0 0 0 0 0 0 0 0 0 0 0 0 0 0 0 0 0 0 12 123 167 184 193 153 37 0 0 0 1 0 1 0 0 0 0 3 17 7
0 0 0 0 0 0 0 0 0 0 0 0 0 0 0 0 0 0 0 0 0 0 0 15 26 130 196 216 227 168 35 0 0 0 2 3 4 0 0 0 0 9 15 11
0 0 0 0 0 0 0 0 1 0 0 0 0 0 0 0 0 0 0 0 0 0 9 108 88 170 260 250 223 170 41 0 1 0 0 4 1 0 0 0 0 0 6 17
0 0 0 0 0 0 0 0 0 0 0 0 0 0 0 0 0 0 0 0 0 0 92 141 170 215 284 302 245 160 29 0 0 1 0 1 0 0 0 0 0 0 5 11
0 0 0 0 0 0 0 0 0 2 0 0 0 0 0 0 0 0 0 0 0 2 160 203 237 280 333 350 252 164 50 0 0 2 0 0 2 2 0 0 0 0 0 3
0 0 0 0 0 0 0 0 0 0 0 0 0 47 18 0 0 0 0 8 0 66 260 241 300 343 384 391 295 180 69 17 0 0 0 0 1 1 2 0 0 0 0 0
0 0 0 0 0 0 0 0 0 0 0 0 0 0 13 0 0 0 4 0 1 1 0 281 350 461 426 359 288 206 88 54 35 0 1 0 1 1 0 0 0 0 0 0
0 0 0 0 0 0 0 0 0 0 1 0 0 0 0 0 0 0 0 0 0 16 5 105 294 375 370 349 313 251 165 127 149 45 0 0 6 0 2 1 0 0 0 0
0 0 0 0 0 0 0 0 0 0 0 0 0 0 2 0 0 0 0 0 0 0 2 3 245 312 282 291 290 252 215 186 181 202 150 16 0 1 1 1 1 0 0 0
0 0 0 0 3 1 0 0 0 0 0 0 0 0 0 0 0 0 0 0 0 0 0 0 27 26 65 186 237 217 216 183 231 257 238 235 92 0 0 0 0 0 0 0
0 0 0 0 0 0 0 0 0 0 0 0 0 0 0 0 0 0 0 0 0 0 0 0 0 0 0 0 0 16 77 168 234 202 355 266 238 157 152 80 13 0 0 0
0 0 0 0 0 0 0 0 0 0 0 0 0 0 0 0 0 0 0 0 0 0 2 0 0 0 0 0 0 0 2 84 129 187 226 200 229 146 125 134 99 122 93 62
0 0 0 0 0 0 0 8 20 1 24 9 0 15 0 0 0 0 0 0 1 21 8 2 1 3 0 0 0 0 0 0 34 168 195 199 199 199 215 246 355 272 138 106
0 0 0 0 0 0 1 19 1 3 6 41 13 9 5 4 0 13 3 11 31 45 42 23 22 12 0 0 0 0 0 0 0 1 71 158 161 205 223 197 237 167 238 149
2 0 0 0 0 0 0 0 0 28 0 19 17 0 10 14 41 8 17 1 10 27 25 12 3 0 0 0 0 0 0 0 0 0 0 0 6 101 78 243 302 116 110 169
7 0 0 0 0 0 0 3 22 2 0 4 4 31 47 40 42 53 44 10 4 7 1 0 0 0 0 0 0 0 0 0 0 0 0 0 0 0 0 5 83 186 159 130
0 0 0 0 0 0 2 68 39 3 2 4 6 25 24 22 51 60 56 1 0 0 0 0 0 0 0 0 0 0 0 0 0 0 0 0 0 0 0 1 4 92 366 512
0 0 0 0 0 21 8 15 41 37 26 14 17 19 9 23 21 20 9 0 0 0 0 0 0 0 0 0 0 0 0 0 0 0 0 0 0 0 0 0 0 8 119 163
1 0 19 10 26 18 20 41 40 37 53 36 29 22 12 2 5 3 0 0 0 0 0 0 0 0 0 0 0 0 0 0 0 0 0 0 0 0 0 0 0 0 0 22
0 10 0 4 16 14 26 28 40 29 19 15 0 2 3 1 0 0 0 0 0 0 0 0 0 0 0 0 0 0 0 0 0 0 0 0 0 0 0 0 0 0 0 0
0 0 1 0 1 1 1 7 0 0 7 4 1 0 1 0 0 0 0 0 0 0 0 0 0 0 0 0 0 0 0 0 0 0 0 0 0 0 0 0 0 0 0 0

GFSCGP_con_mucape_093.txt.gz
CAPE
0 0 0 0 0 0 0 0 0 0 0 0 0 0 0 0 0 0 0 0 0 0 0 0 5 74 131 307 204 80 28 0 19 0 0 1 0 6 8 7 10 69 40 71
0 0 0 0 0 0 0 0 0 0 0 0 0 0 0 0 0 0 0 0 0 0 0 0 54 168 243 291 198 93 39 10 2 0 0 0 0 0 0 0 0 0 16 31
0 0 0 0 0 0 0 0 0 0 0 0 0 0 0 0 0 0 0 0 0 0 0 0 38 198 225 248 193 113 52 37 7 0 0 0 0 0 0 0 0 0 6 18
0 0 0 0 0 0 0 0 0 0 0 0 0 0 0 0 0 0 0 0 0 0 0 0 28 118 209 254 166 139 68 69 5 0 0 0 0 0 0 0 0 0 2 24
0 0 0 0 0 0 0 0 0 0 0 0 0 0 0 0 0 0 0 0 0 0 0 2 64 115 191 247 196 123 79 102 7 0 0 0 0 0 0 0 0 0 0 0
0 0 0 0 0 0 0 0 0 0 0 0 0 0 0 0 0 0 0 0 0 0 0 0 18 17 127 209 203 122 106 110 9 0 0 0 0 0 0 0 0 0 0 4
0 0 0 0 0 0 0 0 0 0 0 0 0 0 0 0 0 0 0 0 0 0 0 0 11 48 85 191 197 143 140 122 23 0 0 0 0 0 0 0 0 0 0 0
0 0 0 0 0 0 0 0 0 0 0 0 0 0 0 0 0 0 0 0 0 0 0 0 11 28 48 183 204 173 183 127 31 0 0 0 0 0 0 0 0 0 0 0
0 0 0 0 0 0 0 0 0 0 0 0 0 0 0 0 0 0 0 0 0 0 0 0 13 20 20 147 201 196 212 130 30 0 0 0 3 0 0 0 0 0 0 2
0 0 0 0 0 0 0 0 0 0 0 0 0 0 2 3 0 0 0 0 0 0 0 3 18 20 14 104 210 231 243 146 31 0 0 0 0 0 0 0 0 0 0 0
0 0 0 0 0 0 0 0 0 0 0 0 0 31 56 0 1 0 0 0 0 0 91 89 44 25 25 83 239 263 235 176 58 0 1 0 0 0 0 0 0 0 0 0
0 0 0 0 0 0 0 0 0 0 0 0 0 0 29 2 1 1 0 0 0 0 197 214 134 117 128 153 268 326 271 206 77 13 0 1 0 0 0 0 0 0 0 0
0 0 0 0 0 0 0 0 0 0 0 0 0 0 1 0 2 2 0 3 0 78 93 334 317 294 247 262 317 348 326 224 88 97 53 1 0 0 0 0 0 0 0 0
0 0 0 0 0 0 0 0 0 0 0 0 0 0 22 0 0 0 0 6 1 34 249 338 447 447 388 331 314 268 285 256 146 175 171 113 28 0 0 0 0 0 0 0
0 0 0 0 0 0 0 0 0 0 0 0 0 0 0 3 0 0 0 0 0 3 9 31 107 137 163 187 182 184 133 178 149 174 155 139 162 136 52 0 0 0 0 0
3 0 0 0 0 0 0 0 0 0 0 0 0 0 0 18 4 0 0 0 0 0 0 4 0 0 1 0 2 19 70 92 148 189 178 105 118 114 131 100 60 13 0 0
11 0 0 0 0 0 0 0 0 0 0 0 0 0 0 11 1 0 0 0 0 0 0 0 0 0 0 0 0 0 0 19 57 104 125 119 119 125 118 100 96 103 98 103
0 0 0 0 0 0 0 0 5 0 0 11 0 0 0 0 0 1 0 0 0 4 0 0 0 0 0 0 0 0 0 0 19 72 74 51 61 78 76 60 88 98 78 66
0 0 0 0 0 0 0 0 0 0 0 18 35 11 0 0 12 0 0 36 0 0 0 28 19 1 0 0 0 0 0 0 0 0 6 37 59 75 105 112 132 83 46 45
0 0 0 0 0 0 0 0 0 0 0 15 28 17 2 9 0 24 52 68 30 31 47 44 24 1 0 0 0 0 0 0 0 0 0 0 0 0 0 2 34 83 82 68
0 0 0 0 0 0 0 0 16 0 0 15 36 16 0 5 24 36 57 58 23 18 44 26 7 0 0 0 0 0 0 0 0 0 0 0 0 0 0 0 0 0 13 43
0 0 0 0 0 0 0 0 40 3 6 29 28 34 20 42 37 51 62 70 53 1 0 0 0 0 0 0 0 0 0 0 0 0 0 0 0 0 0 0 0 0 0 1
2 0 0 0 0 0 0 1 3 24 40 24 19 24 32 21 22 36 48 47 7 0 0 0 0 0 0 0 0 0 0 0 0 0 0 0 0 0 0 0 0 0 0 0
8 0 0 0 4 0 7 7 21 19 44 27 2 13 5 3 13 1 0 0 0 0 0 0 0 0 0 0 0 0 0 0 0 0 0 0 0 0 0 0 0 0 0 0
0 0 0 3 0 3 7 13 41 11 13 13 12 24 0 6 1 0 0 0 0 0 0 0 0 0 0 0 0 0 0 0 0 0 0 0 0 0 0 0 0 0 0 0
0 0 0 0 0 0 0 8 2 4 0 2 2 4 0 0 0 0 0 0 0 0 0 0 0 0 0 0 0 0 0 0 0 0 0 0 0 0 0 0 0 0 0 0

GFSCGP_con_mucape_096.txt.gz
CAPE
0 0 0 0 0 0 0 0 0 0 0 0 0 0 0 0 0 0 0 0 0 0 0 0 0 0 23 109 173 363 256 45 3 0 0 0 3 2 15 92 167 58 34 59
0 0 0 0 0 0 0 0 0 0 0 0 0 0 0 0 0 0 0 0 0 0 0 0 0 0 38 87 127 313 294 72 23 0 0 5 3 0 3 20 29 35 123 34
0 0 0 0 0 0 0 0 0 0 0 0 0 0 0 0 0 0 0 0 0 0 0 0 0 19 58 68 82 292 300 97 43 4 0 0 2 1 1 0 0 1 1 63
0 0 0 0 0 0 0 0 0 0 0 0 0 0 0 0 0 0 0 0 0 0 0 0 0 31 96 105 114 276 284 132 60 17 0 0 0 0 0 0 0 0 0 0
0 0 0 0 0 0 0 0 0 0 0 0 0 0 0 0 0 0 0 0 0 0 0 0 0 6 107 156 160 281 256 157 80 37 0 0 0 0 0 0 0 0 0 0
0 0 0 0 0 0 0 0 0 0 0 0 0 0 0 0 0 0 0 0 0 0 0 0 0 1 104 131 177 248 210 169 90 64 16 0 0 0 0 0 0 0 0 0
0 0 0 0 0 0 0 0 0 0 0 0 0 0 0 0 0 0 0 0 0 0 0 0 0 1 92 98 150 193 214 171 110 84 23 0 0 0 0 0 0 0 0 0
0 0 0 0 0 0 0 0 0 0 0 0 0 0 0 0 0 0 0 0 0 0 0 0 0 0 17 31 77 168 229 176 122 108 31 0 0 0 0 0 0 0 0 0
0 0 0 0 0 0 0 0 0 0 0 0 0 0 0 0 0 0 0 0 0 0 0 0 0 0 1 4 20 119 210 158 134 140 41 0 0 0 0 0 0 0 0 0
0 0 0 0 0 0 0 0 0 0 0 0 0 0 0 0 3 0 0 0 0 0 0 0 0 0 0 6 0 38 192 172 154 159 45 0 0 0 0 0 0 0 0 0
0 0 0 0 0 0 0 0 0 0 0 0 0 0 92 16 0 0 0 0 0 1 0 18 0 0 0 2 2 23 172 191 175 154 55 0 0 0 0 0 0 0 0 0
0 0 0 0 0 0 0 0 0 0 0 0 0 0 0 20 0 0 0 1 32 77 205 135 35 0 0 1 7 20 154 191 234 154 52 0 0 0 0 0 0 0 0 0
0 0 0 0 0 0 0 0 0 1 0 0 0 0 15 26 6 0 0 5 9 338 341 312 271 143 47 7 7 16 152 195 230 136 51 13 2 0 0 0 0 0 0 0
0 0 0 0 0 0 0 0 0 0 0 0 0 0 0 16 0 0 0 1 21 445 514 364 343 355 250 137 82 91 207 189 166 177 102 90 81 34 0 0 0 0 0 0
0 0 0 0 0 0 0 0 0 0 0 0 0 0 0 10 7 0 0 0 0 9 78 107 201 260 332 276 235 198 194 185 188 185 108 129 116 94 51 14 0 0 0 0
0 0 0 0 0 0 0 0 0 0 0 0 0 0 7 8 28 0 11 0 0 4 4 10 21 29 64 82 79 50 22 29 57 74 102 111 108 105 98 82 70 55 13 0
0 0 0 0 0 0 0 0 7 7 0 0 0 0 2 8 19 0 0 0 0 0 1 0 12 2 16 14 12 4 0 0 23 57 79 81 126 74 54 66 68 70 56 49
0 0 0 0 0 0 0 0 3 0 2 0 0 0 0 0 2 0 0 0 0 0 0 0 0 0 0 0 0 0 0 1 7 35 31 81 59 51 40 34 24 31 32 41
0 0 0 0 0 0 0 0 0 0 0 17 27 0 2 0 0 0 0 0 0 0 0 0 2 0 0 0 0 0 0 0 0 0 1 9 35 15 52 33 38 49 34 23
0 0 0 0 0 0 0 0 0 15 0 2 21 16 0 0 1 0 0 0 0 0 0 0 2 2 0 0 0 0 0 0 0 0 0 0 0 0 0 0 4 21 30 30
0 0 0 0 0 0 0 0 0 0 0 0 24 33 0 1 0 1 0 2 7 18 18 8 30 12 2 0 0 0 0 0 0 0 0 0 0 0 0 0 0 0 0 1
0 0 0 0 0 0 0 0 0 0 0 0 1 16 27 4 0 0 3 14 11 17 0 0 0 0 0 0 0 0 0 0 0 0 0 0 0 0 0 0 0 0 0 0
2 11 0 0 0 0 0 0 3 4 23 0 4 17 2 11 4 0 1 16 32 1 0 0 0 0 0 0 0 0 0 0 0 0 0 0 0 0 0 0 0 0 0 0
0 0 0 0 0 0 0 0 2 3 11 17 6 15 22 30 1 0 14 13 1 0 0 0 0 0 0 0 0 0 0 0 0 0 0 0 0 0 0 0 0 0 0 0
0 0 0 0 0 0 0 0 5 13 10 4 3 4 1 0 0 0 0 0 0 0 0 0 0 0 0 0 0 0 0 0 0 0 0 0 0 0 0 0 0 0 0 0
0 0 0 0 0 0 0 0 0 4 0 0 0 0 0 0 2 0 0 0 0 0 0 0 0 0 0 0 0 0 0 0 0 0 0 0 0 0 0 0 0 0 0 0

GFSCGP_con_mucape_099.txt.gz
CAPE
0 0 0 0 0 0 0 0 0 0 0 0 0 0 0 0 0 0 0 0 0 0 0 0 0 0 0 91 141 126 108 182 189 49 59 15 0 0 7 25 36 64 82 39
0 0 0 0 0 0 0 0 0 0 0 0 0 0 0 0 0 0 0 0 0 0 0 0 0 0 0 4 130 123 143 228 225 48 4 26 2 4 1 32 41 45 172 69
0 0 0 0 0 0 0 0 0 0 0 0 0 0 0 0 0 0 0 0 0 0 0 0 0 0 0 0 107 169 225 257 278 103 0 0 3 6 20 5 20 46 50 85
0 0 0 0 0 0 0 0 0 0 0 0 0 0 0 0 0 0 0 0 0 0 0 0 0 0 0 12 95 179 216 236 307 152 19 6 0 0 0 1 0 1 18 17
0 0 0 0 0 0 0 0 0 0 0 0 0 0 0 0 0 0 0 0 0 0 0 0 0 0 0 23 122 196 190 171 283 201 53 24 2 0 0 0 0 3 0 0
0 0 0 0 0 0 0 0 0 0 0 0 0 0 0 0 0 0 0 0 0 0 0 0 0 0 5 94 179 230 130 103 264 230 89 47 4 0 0 0 0 0 0 0
0 2 0 0 0 0 0 0 0 0 0 0 0 0 0 0 0 0 0 0 0 0 0 0 0 0 105 197 323 307 154 114 262 244 129 76 7 0 0 0 0 0 0 0
0 0 0 0 0 0 0 0 0 0 0 0 0 0 0 0 0 0 0 0 0 0 0 0 0 11 198 321 393 194 83 152 229 226 152 113 16 0 0 0 0 0 0 2
0 0 0 0 0 0 0 0 0 0 0 0 0 0 0 0 14 3 0 0 0 0 0 1 0 0 204 325 303 201 74 153 223 188 170 137 24 0 0 0 0 0 0 0
0 0 0 0 0 0 0 0 0 0 0 0 0 0 0 28 47 18 0 0 0 26 87 7 0 0 93 209 179 112 46 132 182 167 159 136 17 0 0 0 0 0 0 0
0 0 5 0 0 0 0 0 0 0 0 0 0 0 69 76 76 41 1 32 6 178 237 177 10 15 50 94 64 5 31 253 142 191 155 137 5 0 0 0 0 0 0 0
0 0 0 0 0 0 0 0 0 0 0 0 0 0 80 69 73 76 14 2 8 140 294 252 126 11 11 29 3 1 119 216 149 177 152 96 2 0 0 0 0 0 0 0
1 0 0 0 0 2 3 1 0 0 0 0 0 0 15 0 9 15 4 2 1 171 234 320 155 52 59 182 69 104 170 127 200 211 154 59 0 0 0 0 0 0 0 0
13 11 0 0 0 0 0 0 0 0 0 0 0 0 0 0 0 0 3 3 18 188 359 359 208 33 20 16 90 178 183 125 225 206 163 28 16 12 0 0 0 0 0 0
2 0 0 0 0 0 0 0 0 0 0 0 0 0 0 0 0 34 19 0 0 33 173 333 402 268 78 35 1 13 122 212 221 186 159 59 79 69 30 0 0 0 0 0
0 2 3 0 0 0 0 0 0 0 0 0 0 0 0 0 2 16 6 7 0 0 12 95 155 249 191 176 257 128 170 145 120 86 34 52 89 98 90 52 10 0 0 0
0 0 0 0 0 0 0 0 0 0 7 4 6 0 0 0 6 5 9 5 0 0 0 1 37 37 50 32 49 64 44 27 19 23 14 32 55 48 87 92 77 64 55 30
0 0 0 0 0 0 0 0 0 0 0 1 17 0 0 0 4 12 0 8 0 0 0 0 0 11 20 46 94 89 39 18 3 0 20 42 72 51 58 124 68 73 49 47
0 0 0 0 0 0 0 0 0 0 0 5 22 4 0 0 7 0 0 1 0 0 0 0 0 0 1 10 7 17 0 71 0 2 64 9 0 7 20 26 48 107 41 28
0 0 0 0 0 0 0 0 0 1 0 0 9 6 1 0 0 0 0 0 0 0 0 0 0 0 0 1 4 0 0 0 0 0 0 0 0 0 0 0 1 1 10 43
0 0 0 0 0 0 0 0 0 0 0 0 0 0 2 19 0 0 0 0 1 7 20 27 4 0 0 0 0 0 0 0 0 0 0 0 0 0 0 0 0 0 0 0
0 0 0 0 0 0 0 0 0 0 3 1 1 14 2 2 1 0 0 0 0 0 0 0 0 0 0 0 0 0 0 0 0 0 0 0 0 0 0 0 0 0 0 0
2 0 0 0 0 0 0 0 0 0 0 2 4 7 3 0 7 0 0 0 0 0 0 0 0 0 0 0 0 0 0 0 0 0 0 0 0 0 0 0 0 0 0 0
0 0 0 0 0 0 0 0 0 8 0 4 2 2 0 0 6 0 6 0 0 0 0 0 0 0 0 0 0 0 0 0 0 0 0 0 0 0 0 0 0 0 0 0
0 0 0 0 0 0 0 0 0 0 1 0 0 0 0 0 0 0 0 0 0 0 0 0 0 0 0 0 0 0 0 0 0 0 0 0 0 0 0 0 0 0 0 0
0 0 0 0 0 0 0 0 0 0 0 0 0 0 0 0 0 0 0 0 0 0 0 0 0 0 0 0 0 0 0 0 0 0 0 0 0 0 0 0 0 0 0 0

GFSCGP_con_mucape_102.txt.gz
CAPE
0 0 0 0 0 0 0 0 0 0 0 0 0 0 0 0 0 0 0 0 0 0 0 0 0 0 0 0 405 819 1001 1190 390 662 758 524 235 66 319 154 169 274 397 287
0 0 0 0 0 0 0 0 0 0 0 0 0 0 0 0 0 0 0 0 0 0 0 0 0 0 0 0 112 621 870 1116 837 979 859 547 336 196 103 105 176 402 419 274
0 0 0 0 0 0 0 0 0 0 0 0 0 0 0 0 0 0 0 0 0 0 0 0 0 0 0 0 9 424 701 1056 888 974 791 474 347 67 88 61 1 81 312 176
0 0 0 0 0 0 0 0 0 0 0 0 0 0 0 0 0 0 0 0 0 0 0 0 0 0 0 0 0 231 514 895 858 968 740 366 184 75 77 40 1 7 50 47
0 0 0 0 0 0 0 0 0 0 0 0 0 0 0 0 0 0 3 0 0 0 0 0 0 0 0 0 7 292 475 772 848 958 706 500 457 318 102 18 9 8 28 60
14 17 1 4 3 0 0 0 0 1 0 0 0 0 0 0 0 0 1 0 0 0 0 0 0 0 0 0 14 454 533 774 831 840 711 614 523 237 30 8 11 18 19 24
30 88 44 37 13 28 2 0 2 0 0 0 0 0 0 0 0 0 0 2 3 2 1 0 0 0 0 0 330 579 614 765 753 381 545 541 266 225 53 3 3 8 5 22
0 0 79 44 29 3 0 0 0 0 0 0 0 0 6 3 10 5 8 5 3 0 5 52 36 0 0 36 545 637 652 663 447 348 402 337 209 277 34 2 2 5 12 24
0 0 52 53 26 22 11 0 3 0 0 0 0 0 0 1 28 45 18 4 2 0 0 40 248 51 0 274 618 720 560 504 530 352 227 334 375 156 6 5 5 7 12 0
12 0 50 19 21 12 8 6 0 1 0 0 0 0 22 49 50 55 40 13 6 3 0 117 404 162 0 416 745 644 464 405 490 186 225 346 238 146 8 9 4 12 18 0
37 60 44 50 42 28 25 6 2 9 3 0 0 67 67 13 0 12 24 21 15 1 0 44 48 339 105 381 670 409 355 398 382 107 268 328 208 127 10 11 9 11 19 0
26 77 0 50 1 23 15 8 5 6 0 0 0 0 9 0 0 11 27 28 10 0 0 5 180 95 174 379 404 295 358 254 147 165 296 298 226 80 9 14 13 9 6 3
58 70 0 35 42 44 21 19 18 3 3 0 0 28 15 1 0 17 24 3 0 0 1 227 168 10 75 302 253 56 12 47 249 156 277 265 243 5 8 12 16 10 8 3
11 17 23 26 18 16 19 17 18 18 0 1 8 14 11 0 0 18 43 4 0 0 31 128 142 18 112 62 51 88 40 108 318 331 278 215 138 3 9 14 14 11 7 5
4 0 4 9 1 0 0 0 0 0 0 0 0 0 0 18 29 23 13 13 3 0 0 42 249 35 44 113 206 179 284 540 478 255 202 185 53 0 0 4 7 10 10 7
0 0 0 0 0 0 0 0 0 0 0 14 5 29 32 5 1 13 9 8 5 0 0 0 198 189 101 34 42 63 185 214 222 235 194 77 38 33 25 10 2 6 5 7
0 0 1 0 0 0 0 0 0 0 0 40 11 35 0 0 2 1 9 3 0 15 0 0 0 174 218 139 184 111 175 222 187 173 139 61 13 15 22 64 39 11 11 19
0 0 0 0 0 0 0 0 0 0 25 35 35 7 0 0 0 0 0 0 0 2 0 0 0 0 2 82 56 28 34 153 104 74 52 47 19 0 4 22 58 65 60 28
0 0 0 0 0 0 0 0 0 0 0 1 0 0 0 0 0 0 0 0 0 0 0 0 0 0 0 0 2 7 0 3 8 37 33 4 23 7 38 48 61 108 122 136
0 1 0 0 0 0 0 1 0 1 0 0 0 0 0 0 0 0 0 0 0 0 0 0 0 0 0 0 0 0 0 0 0 10 10 0 1 0 0 0 1 32 96 146
0 9 0 0 0 0 0 1 0 5 0 0 0 0 0 0 0 0 0 0 0 0 0 1 6 3 3 2 11 0 0 1 3 0 0 0 0 0 0 0 0 0 0 2
0 0 0 0 0 0 0 5 0 0 0 0 1 1 0 0 0 0 0 0 0 0 0 0 0 0 0 0 1 0 0 2 2 0 1 1 0 0 0 0 0 0 0 0
0 0 0 0 0 0 0 0 0 0 0 0 0 0 0 0 0 0 0 0 0 0 0 0 0 0 0 0 0 0 0 0 0 0 0 0 0 0 0 0 0 0 0 0
0 0 0 0 0 0 0 0 0 0 0 0 0 0 0 0 0 0 0 0 0 0 0 0 0 0 0 0 0 0 0 0 0 0 0 0 0 0 0 0 0 0 0 0
0 0 0 0 0 0 0 0 0 0 0 0 0 0 0 0 0 0 0 0 0 0 0 0 0 0 0 0 0 0 0 0 0 0 0 0 0 0 0 0 0 0 0 0
0 0 0 0 0 0 0 0 0 0 0 0 0 0 0 0 0 0 0 0 0 0 0 0 0 0 0 0 0 0 0 0 0 0 0 0 0 0 0 0 0 0 0 0

GFSCGP_con_mucape_105.txt.gz
CAPE
0 0 0 0 0 0 0 0 0 0 1 0 0 0 0 0 0 0 0 0 0 0 0 0 0 0 0 0 0 468 1466 2005 1827 1079 1355 1502 1294 472 657 392 607 873 714 835
0 0 0 0 0 0 0 0 0 0 0 0 0 0 0 0 0 0 0 0 0 0 0 0 0 0 0 0 0 341 932 1477 1814 1095 1135 1380 1152 416 674 632 522 486 356 620
0 0 0 0 0 0 0 0 0 0 0 0 0 0 0 0 0 0 0 0 0 0 0 0 0 0 0 0 0 0 565 1079 1658 1105 1208 1319 1070 545 457 442 487 490 432 666
0 0 0 0 0 0 0 0 0 0 0 0 0 0 0 0 0 0 0 0 0 0 0 0 0 0 0 0 3 0 150 738 1300 1296 1313 1485 1081 787 578 607 190 372 443 350
35 0 8 0 0 0 0 0 0 0 0 0 0 0 0 0 0 0 0 0 0 2 0 0 0 0 0 0 4 44 17 416 1008 1497 1527 1710 1130 925 699 590 353 191 281 151
68 12 31 3 0 0 0 0 0 0 0 1 0 0 0 1 2 0 10 7 12 20 27 27 18 0 0 0 0 29 38 266 972 1404 1672 1790 1160 1029 842 661 280 56 138 146
67 95 31 16 0 0 0 0 3 8 8 4 0 0 0 39 34 1 9 24 37 40 51 42 40 114 4 0 0 45 99 292 879 1412 1590 1436 1131 1160 969 575 230 147 39 28
85 74 39 35 0 0 0 0 0 7 0 5 0 0 44 63 67 14 34 31 23 23 21 11 33 312 187 2 0 0 27 455 642 1244 1364 1471 1242 1200 851 547 224 113 45 12
81 7 15 48 34 9 24 0 5 0 0 0 4 76 142 94 64 33 33 36 36 25 10 3 0 12 358 166 0 30 372 580 688 1269 1344 1410 1457 1078 885 532 179 113 61 10
60 40 26 53 85 50 50 60 0 0 0 0 0 0 163 37 12 10 10 50 15 8 5 0 0 4 35 131 65 625 844 745 953 645 628 1029 951 1132 761 395 160 98 10 6
17 58 26 67 52 0 76 61 77 58 102 0 0 134 79 11 6 16 40 41 7 9 0 0 0 98 87 128 645 940 897 857 590 407 820 673 882 1027 628 254 89 39 6 32
17 33 42 75 35 67 94 111 92 31 2 18 73 75 30 3 2 25 69 25 4 0 0 0 0 207 113 234 585 626 869 534 405 458 676 511 1108 781 481 222 70 27 2 10
67 77 0 117 56 113 70 75 93 70 46 86 12 98 24 14 28 80 36 10 1 0 0 0 0 196 120 372 415 469 392 414 430 417 428 454 853 540 289 107 49 11 6 9
51 48 8 19 22 76 74 67 53 68 97 46 70 11 78 39 35 38 2 5 4 0 0 0 0 30 58 211 345 184 358 303 260 138 204 277 748 610 255 47 7 51 4 5
37 0 6 25 43 110 57 59 32 37 3 0 15 61 56 4 0 0 0 0 10 0 0 0 0 3 107 36 59 396 54 109 218 185 274 354 388 301 246 22 27 15 8 5
2 0 0 0 11 22 16 0 0 0 0 16 23 62 0 0 0 0 3 0 2 0 1 0 0 0 75 41 105 65 102 137 139 246 378 386 291 172 141 24 0 6 7 6
0 3 0 0 5 9 0 0 0 5 26 37 78 42 14 0 0 0 0 0 0 0 1 0 0 0 1 67 216 228 158 244 367 416 392 320 185 164 62 37 9 9 9 15
0 0 0 0 1 0 0 14 0 73 1 9 11 2 0 0 0 0 0 0 0 0 0 0 0 0 0 8 26 95 233 321 203 271 312 222 111 99 73 60 24 0 0 0
10 4 0 0 0 0 31 0 0 5 0 0 0 0 0 0 0 0 0 0 0 0 0 0 0 0 0 0 0 0 5 43 56 109 69 230 130 98 64 41 16 7 2 2
1 7 5 0 0 0 0 30 14 22 0 0 0 0 0 0 0 0 0 0 0 0 0 0 0 0 0 0 0 0 0 0 6 10 0 0 0 7 25 4 14 25 19 18
19 25 33 8 0 2 0 0 0 10 0 0 0 0 0 0 0 0 0 0 0 0 0 0 0 0 1 6 0 0 0 0 0 4 0 0 0 0 0 0 0 0 0 6
36 37 42 52 0 7 0 0 0 0 0 0 0 0 0 0 0 0 0 0 0 0 0 0 0 0 0 0 1 0 0 0 3 0 2 18 10 1 5 0 0 0 0 0
42 0 0 0 0 0 0 0 0 0 0 0 0 0 0 0 0 0 0 0 0 0 0 0 0 0 0 0 0 0 0 2 0 0 0 5 16 9 6 2 0 0 0 0
10 8 0 0 0 0 0 0 0 0 0 0 0 0 0 0 0 0 0 0 0 0 0 0 0 0 0 0 0 0 0 0 0 0 0 2 2 0 0 0 0 1 1 0
11 0 0 0 0 0 0 0 0 0 0 0 0 0 0 0 0 0 0 0 0 0 0 0 0 0 0 0 0 0 0 0 0 0 0 0 0 0 0 0 0 0 0 0
0 0 0 0 0 0 0 0 0 0 0 0 0 0 0 0 0 0 0 0 0 0 0 0 0 0 0 0 0 0 0 0 0 0 0 0 0 0 0 0 0 0 0 0

GFSCGP_con_mucape_108.txt.gz
CAPE
0 0 0 0 0 0 0 4 5 0 0 0 0 0 0 0 0 0 0 0 0 0 0 0 0 0 0 0 0 1028 2131 2323 2025 1870 1723 1577 1399 1125 792 657 545 482 599 759
21 19 0 0 0 0 0 2 5 3 2 0 0 3 4 0 0 0 0 0 0 0 0 0 0 0 0 0 0 447 1967 2289 1972 1832 1579 1479 1392 1062 771 360 356 583 660 798
44 0 0 0 0 0 0 0 8 0 3 0 0 0 0 0 0 0 0 0 0 0 0 0 0 0 17 12 37 4 554 2125 1896 1596 1214 1148 1305 1119 805 467 336 373 539 461
25 12 25 0 0 0 0 0 18 0 0 1 0 0 0 0 0 0 0 0 0 0 0 0 0 0 1 24 85 6 69 1152 1802 1607 1175 882 1070 1033 822 458 225 304 306 425
0 15 44 1 0 0 0 9 4 0 0 0 0 0 0 0 0 0 0 2 0 0 0 0 0 0 0 0 0 71 23 336 1318 1529 1260 1003 1235 993 487 441 298 193 447 308
0 24 51 0 6 0 3 0 0 0 0 2 0 0 0 0 0 8 39 0 3 19 16 16 10 20 11 0 0 0 75 74 662 1512 1255 1255 1247 938 638 607 431 216 197 260
0 0 20 6 10 11 0 0 0 0 4 0 0 0 0 15 49 107 39 55 23 26 11 5 2 1 11 103 163 0 0 29 283 1464 1385 1344 1471 1135 810 637 450 204 136 119
0 76 53 34 22 0 0 0 0 0 2 0 0 0 0 26 133 99 126 113 22 1 2 0 0 0 0 81 191 31 0 9 165 1167 1532 1254 1648 1138 1006 791 538 288 100 57
57 42 18 94 3 9 0 0 0 0 0 1 0 86 11 53 140 157 119 72 18 10 4 0 0 0 0 62 64 81 2 0 80 771 1460 1276 1426 1134 1175 818 622 342 171 23
0 143 35 105 28 9 28 9 0 3 0 0 0 11 111 34 49 75 105 30 14 0 0 0 0 0 0 0 6 46 114 0 312 1090 1268 1423 1247 1227 1102 820 546 355 215 64
0 7 29 5 15 23 32 25 17 4 0 0 0 144 8 1 0 71 10 0 0 0 0 0 0 0 1 0 279 451 673 698 1109 1281 1221 1194 1164 1137 1065 730 565 365 160 37
15 17 49 16 26 20 0 2 6 67 3 0 3 1 0 84 63 17 0 0 0 0 0 0 0 0 35 5 173 402 549 639 776 851 931 947 920 979 1011 866 483 292 142 0
37 3 30 0 0 3 6 23 59 16 0 0 0 12 0 0 1 0 0 0 0 3 0 0 0 0 0 80 50 182 538 412 365 670 641 694 723 877 889 823 377 354 77 4
114 23 0 25 0 44 36 43 29 32 41 21 13 56 3 0 0 0 0 0 0 1 0 0 0 0 0 13 13 209 293 300 348 519 373 411 702 823 998 789 406 354 30 12
3 26 0 0 54 59 4 29 63 61 1 0 19 0 0 0 0 0 0 2 0 0 0 0 0 0 0 4 21 129 61 168 81 249 440 439 816 715 862 504 243 188 38 24
0 0 0 0 1 11 0 0 0 28 53 41 92 8 0 0 0 0 0 0 0 0 0 0 0 0 0 0 1 59 12 273 15 163 291 470 482 654 681 592 229 114 26 13
0 0 0 0 0 0 0 1 5 0 0 0 0 0 0 0 0 0 0 0 0 0 0 0 0 0 0 0 0 14 25 51 130 281 415 369 537 579 445 476 154 94 8 12
0 0 0 0 0 0 0 24 0 0 0 0 0 0 0 0 0 0 0 0 0 0 0 0 0 0 0 0 0 0 0 77 91 113 102 299 417 507 456 398 166 72 7 1
0 0 0 0 0 0 0 0 0 0 0 0 0 0 0 0 0 0 0 0 0 0 0 0 0 0 0 0 0 0 0 0 51 80 99 136 128 186 219 249 135 99 4 1
34 99 106 0 0 0 0 0 0 0 0 0 0 0 0 0 0 0 0 0 0 0 0 0 0 0 0 0 0 0 0 0 0 0 0 1 0 7 24 52 15 16 7 4
47 43 80 69 8 0 0 0 0 0 0 0 0 0 0 0 0 0 0 0 0 0 0 0 0 0 0 0 0 0 0 0 0 0 0 0 0 0 0 0 0 0 5 0
0 13 2 2 6 0 0 0 0 0 0 0 0 0 0 0 0 0 0 0 0 0 0 0 0 0 0 0 0 0 0 0 0 0 0 0 0 0 0 0 0 0 0 0
0 0 0 0 0 0 0 0 0 0 0 0 0 0 0 0 0 0 0 0 0 0 0 0 0 0 0 0 0 0 0 0 0 0 2 3 11 8 7 0 0 12 5 3
18 6 0 0 0 0 0 0 0 0 0 0 0 0 0 0 0 0 0 0 0 0 0 0 0 0 0 0 0 0 0 0 0 0 0 1 0 1 0 0 3 0 1 7
0 2 0 0 0 0 0 0 0 0 0 0 0 0 0 0 0 0 0 0 0 0 0 0 0 0 0 0 0 0 0 0 0 0 0 0 0 0 0 0 0 0 0 0
0 0 0 0 0 0 0 0 0 0 0 0 0 0 0 0 0 0 0 0 0 0 0 0 0 0 0 0 0 0 0 0 0 0 0 0 0 0 0 0 0 0 0 0

GFSCGP_con_mucape_111.txt.gz
CAPE
0 20 0 0 0 0 0 3 0 0 0 0 0 0 0 0 0 0 0 0 0 0 0 0 0 0 0 0 0 1533 1581 1976 2013 1966 1649 1612 1312 1310 1102 812 541 302 400 587
0 0 0 0 0 0 0 0 4 0 0 21 20 0 0 0 0 0 0 0 0 0 0 0 0 0 0 0 0 1659 1747 1885 1905 1923 1614 1477 1382 1205 1080 771 556 385 391 501
0 0 4 11 0 0 0 0 0 2 4 23 22 4 0 0 0 0 0 0 0 0 0 0 0 0 0 0 0 1443 1875 2005 1868 1761 1731 1433 1438 1302 1045 874 635 467 404 384
0 0 0 23 6 0 0 0 0 14 44 40 44 28 7 0 0 0 0 0 0 0 0 0 0 0 0 0 0 448 2011 2040 1917 1754 1710 1475 1421 1275 1190 990 724 464 418 409
2 0 0 14 53 19 0 0 0 21 40 15 37 26 2 0 0 0 0 2 26 13 4 0 0 0 0 4 3 3 395 1929 1783 1771 1598 1515 1248 1091 1225 1181 1012 637 209 457
0 0 2 26 18 34 1 30 115 26 15 7 0 0 1 2 0 42 71 33 11 2 0 2 3 5 0 2 35 22 3 35 1401 1603 1523 1297 1150 1016 1028 1116 1092 722 256 241
0 0 0 44 2 15 12 108 2 3 10 0 0 0 15 40 216 219 132 60 23 6 0 0 0 0 0 1 11 31 14 0 18 1388 1391 1226 928 993 1093 1100 1063 563 306 219
0 0 0 3 0 25 3 4 2 0 0 0 0 0 0 20 218 245 94 56 35 8 21 0 0 0 0 0 0 17 74 14 0 729 1333 1137 1022 866 1206 1064 907 507 315 316
10 0 39 21 42 70 1 0 16 30 4 0 0 0 62 155 241 115 46 8 2 16 31 0 0 0 0 0 0 17 76 48 0 39 1203 1149 1066 1044 1107 1091 896 781 441 195
14 3 6 15 162 146 3 0 10 10 0 3 10 16 54 52 49 38 18 22 8 9 4 1 0 0 0 0 0 0 107 128 144 16 1149 1226 1229 1231 1016 1002 844 724 654 359
57 0 0 99 65 2 22 12 0 50 0 0 0 9 2 5 0 0 28 5 3 0 0 0 0 0 0 0 0 0 208 333 486 323 1162 1201 1134 1119 1041 929 963 1112 728 449
2 0 4 25 9 33 10 43 0 0 0 1 26 0 0 2 0 0 0 0 0 0 0 0 0 0 0 0 0 20 191 175 320 583 1070 1103 989 902 778 764 809 1030 736 323
2 3 0 1 3 6 0 0 0 29 0 0 0 0 0 0 0 0 0 0 0 0 0 0 0 0 0 0 4 11 36 170 92 99 205 598 693 758 646 723 852 600 697 307
50 12 0 0 0 6 1 0 0 0 0 0 4 0 0 0 0 0 0 0 0 0 0 0 0 0 0 0 15 11 17 40 61 74 106 290 553 586 496 545 833 649 552 322
0 0 0 0 0 12 0 1 0 1 0 0 0 0 0 0 0 0 0 0 0 0 0 0 0 0 0 0 0 2 22 25 72 118 115 220 383 435 562 588 697 793 857 165
0 0 0 0 2 0 0 0 0 0 0 0 0 0 0 0 0 0 0 0 0 0 0 0 0 0 0 0 0 21 9 22 54 44 25 70 78 297 425 350 709 611 309 256
0 0 0 5 0 0 0 0 0 0 0 0 0 0 0 0 0 0 0 0 0 0 0 0 0 0 0 0 0 3 12 2 20 19 5 52 147 388 426 405 265 427 406 95
0 0 0 0 0 0 0 0 0 0 0 0 0 0 0 0 0 0 0 0 0 0 0 0 0 0 0 0 0 0 0 0 4 26 41 45 200 160 329 302 113 190 249 217
1 0 0 0 0 0 0 0 0 0 0 0 0 0 0 0 0 0 0 0 0 0 0 0 0 0 0 0 0 0 0 0 0 0 37 64 93 204 244 295 162 135 34 23
24 5 0 0 0 0 0 0 0 0 0 0 0 0 0 0 0 0 0 0 0 0 0 0 0 0 0 0 0 0 0 0 0 0 0 3 38 50 64 4 0 34 29 22
0 1 0 0 0 0 0 0 1 0 0 0 0 0 0 0 0 0 0 0 0 0 0 0 0 0 0 0 0 0 0 0 0 0 0 0 0 0 0 0 8 3 0 5
0 0 0 0 0 0 0 0 0 0 0 0 0 0 0 0 0 0 0 0 0 0 0 0 0 0 0 0 0 0 0 0 0 0 0 0 0 0 0 0 0 0 0 0
0 0 0 0 0 0 0 0 0 0 0 0 0 0 0 0 0 0 0 0 0 0 0 0 0 0 0 0 0 0 0 0 0 0 0 0 0 0 0 0 0 0 0 0
0 0 0 0 0 0 0 0 0 0 0 0 0 0 0 0 0 0 0 0 0 0 0 0 0 0 0 0 0 0 0 0 0 0 0 0 0 0 0 0 0 0 0 0
0 0 0 0 0 0 0 0 0 0 0 0 0 0 0 0 0 0 0 0 0 0 0 0 0 0 0 0 0 0 0 0 0 0 0 0 0 0 0 0 0 0 0 0
0 0 0 0 0 0 0 0 0 0 0 0 0 0 0 0 0 0 0 0 0 0 0 0 0 0 0 0 0 0 0 0 0 0 0 0 0 0 0 0 0 0 0 0

GFSCGP_con_mucape_117.txt.gz
CAPE
0 0 0 0 0 0 0 0 0 0 0 0 0 0 0 0 0 0 0 0 2 7 0 0 0 0 0 0 2 1365 1822 2101 2174 2132 2006 1825 1701 1585 1369 1491 1559 1436 1317 1319
0 0 0 0 0 0 0 0 0 0 0 0 0 0 0 0 0 0 0 0 0 5 5 0 0 0 0 0 0 0 1189 1704 2028 2016 2047 1831 1789 1675 1555 1767 1756 1681 1532 1326
0 0 0 0 0 0 0 0 0 0 0 0 0 0 0 0 0 0 0 0 0 0 1 0 0 0 0 0 0 0 502 1125 1681 1968 1851 1830 1714 1630 1363 1443 1650 1627 1321 1066
0 0 0 0 0 0 0 0 0 7 11 0 6 0 0 0 0 0 0 0 0 0 0 0 0 0 0 0 0 52 660 1061 1557 1881 1838 1718 1709 1617 1333 1277 1326 1317 1174 749
0 0 0 0 0 0 0 0 0 4 14 12 0 5 0 0 5 21 0 0 0 0 0 0 0 0 0 0 0 178 794 1276 1709 1922 1847 1720 1595 1528 1200 1229 1209 1378 1224 987
0 0 0 0 0 0 0 30 54 19 25 0 0 0 3 83 161 70 54 11 0 0 0 0 0 0 0 0 0 0 316 1174 1350 2049 2292 1724 1640 1533 1210 1143 1043 1157 1258 1041
0 0 0 0 0 0 0 11 0 3 0 0 16 5 0 10 74 88 164 104 36 22 26 1 0 0 0 0 0 0 0 0 297 1507 1753 1999 1576 1487 1279 866 469 562 1025 1045
0 0 0 0 0 0 0 0 11 0 0 9 18 22 37 10 3 47 126 90 122 125 76 43 26 21 14 12 0 0 0 0 0 15 667 1231 1874 1882 1418 562 344 920 867 791
0 0 0 6 15 2 1 0 0 0 9 8 8 69 5 7 11 0 8 46 9 25 120 102 79 40 4 0 0 0 0 0 0 0 9 19 569 1161 1352 1266 1060 1024 885 675
0 0 0 0 0 25 31 13 11 1 0 0 4 0 7 22 17 1 0 8 7 4 56 114 64 11 0 0 0 0 0 2 2 11 34 30 28 25 730 1174 1060 966 916 792
0 0 0 4 0 4 12 1 3 3 34 2 0 0 0 0 0 1 23 6 159 174 146 144 112 76 19 0 0 0 0 1 2 10 15 18 13 28 450 790 969 846 785 679
11 0 5 1 0 41 56 1 5 0 0 52 0 0 0 2 0 0 0 0 3 78 102 127 118 74 0 0 0 0 0 2 15 25 40 49 127 433 662 668 707 642 630 593
3 20 0 10 0 11 1 35 4 3 2 0 0 0 0 0 0 0 0 0 0 0 12 44 16 5 0 0 0 0 0 2 1 35 110 170 357 652 673 854 584 623 596 473
3 0 0 0 4 0 2 0 0 0 0 0 0 0 0 0 0 0 0 2 0 0 0 0 0 2 0 0 0 0 0 0 0 22 47 45 80 576 428 661 833 666 459 353
0 0 0 0 0 0 0 0 0 0 0 0 0 0 0 0 0 0 0 0 2 2 0 0 0 0 0 0 0 0 0 0 0 0 4 26 23 28 102 178 297 259 193 282
0 0 0 0 0 0 0 0 0 0 0 0 0 0 0 3 3 2 2 3 1 0 0 0 0 0 0 0 0 0 0 0 4 6 17 3 13 9 12 21 69 61 50 126
0 0 0 0 0 0 0 0 0 0 0 0 0 0 0 2 6 3 1 0 0 0 0 0 0 0 0 0 0 0 0 0 0 1 6 1 4 16 10 29 33 73 100 133
0 0 0 0 0 1 0 0 0 0 0 0 0 0 0 0 1 0 0 0 0 0 0 0 0 0 0 0 0 0 0 0 0 0 0 0 1 9 7 12 24 8 26 17
0 0 0 0 0 0 0 0 0 0 0 0 0 0 0 0 0 0 0 0 0 0 0 0 0 0 0 0 0 0 0 0 0 0 0 0 0 0 5 2 0 1 6 15
0 0 0 0 0 0 0 0 0 0 0 0 0 0 0 0 0 0 0 0 0 0 0 0 0 0 0 0 0 0 0 0 0 0 0 0 0 0 0 0 0 0 0 0
0 0 0 0 0 0 0 0 0 0 0 0 0 0 0 0 0 0 0 0 0 0 0 0 0 0 0 0 0 0 0 0 0 0 0 0 0 0 0 0 0 0 0 0
0 0 0 0 0 0 0 0 0 0 0 0 0 0 0 0 0 0 0 0 0 0 0 0 0 0 0 0 0 0 0 0 0 0 0 0 0 0 0 0 0 0 0 0
0 0 0 0 0 0 0 0 0 0 0 0 0 0 0 0 0 0 0 0 0 0 0 0 0 0 0 0 0 0 0 0 0 0 0 0 0 0 0 0 0 0 0 0
0 0 0 0 0 0 0 0 0 0 0 0 0 0 0 0 0 0 0 0 0 0 0 0 0 0 0 0 0 0 0 0 0 0 0 0 0 0 0 0 0 0 0 0
0 0 0 0 0 0 0 0 0 0 0 0 0 0 0 0 0 0 0 0 0 0 0 0 0 0 0 0 0 0 0 0 0 0 0 0 0 0 0 0 0 0 0 0
0 0 0 0 0 0 0 0 0 0 0 0 0 0 0 0 0 0 0 0 0 0 0 0 0 0 0 0 0 0 0 0 0 0 0 0 0 0 0 0 0 0 0 0

GFSCGP_con_mucape_120.txt.gz
CAPE
0 0 0 0 0 0 0 0 0 0 0 0 0 0 0 0 0 0 0 0 0 0 0 0 0 0 0 0 807 1623 2172 2230 2065 1836 1645 1390 1235 1076 781 652 558 540 478 530
0 0 0 0 0 0 0 0 0 0 0 0 0 0 0 0 0 0 0 0 0 0 0 0 0 0 0 0 0 0 1050 2150 2161 2098 2008 1871 1678 1492 1256 938 896 771 778 861
0 0 0 0 0 0 0 0 0 0 0 0 0 0 0 0 0 0 0 0 0 0 0 0 0 0 0 0 0 0 0 1021 2065 2134 2059 1901 1893 1858 1733 1531 1365 1097 1203 1354
0 0 0 0 0 0 0 0 0 0 0 0 0 0 0 0 0 2 0 0 0 0 0 0 0 9 0 0 0 0 0 138 1306 2009 1993 1870 1716 1545 1696 1874 1668 1336 1703 1625
0 0 0 0 0 0 0 0 0 0 0 0 0 0 0 0 94 22 40 0 0 0 0 0 0 3 8 2 96 163 196 511 1024 1800 2031 1932 1683 1760 1488 1424 1493 1540 1414 1474
0 0 0 0 0 0 0 0 0 0 0 0 0 0 0 4 38 110 100 29 8 0 0 0 1 0 0 14 111 287 719 832 988 1553 1724 1736 1790 1809 1693 1576 1413 1239 1110 1330
0 0 0 0 0 0 0 0 0 0 0 0 10 3 0 0 0 29 62 73 63 34 28 33 14 12 9 98 85 192 635 1109 1072 1474 1887 1868 1600 1823 1649 1674 1521 1279 1083 940
0 0 0 0 0 0 0 0 0 0 0 0 9 0 0 0 16 5 1 47 65 76 62 68 41 24 6 37 56 2 25 49 236 702 1353 1586 1695 1390 1824 1527 1537 1413 1092 601
0 0 0 0 0 0 0 0 0 0 0 0 4 0 0 9 23 17 3 66 86 74 56 116 82 41 23 4 7 12 26 19 18 28 56 249 816 1262 1386 1535 1281 1293 1009 229
0 0 0 0 0 0 0 1 0 0 0 0 30 4 1 1 0 0 0 49 53 135 126 160 157 123 100 69 37 21 4 0 0 3 3 22 29 35 295 1079 1325 1256 1281 265
0 0 0 0 2 0 3 1 0 5 1 0 0 4 0 0 0 0 0 0 0 68 6 150 161 190 161 54 16 2 1 0 0 3 23 30 29 27 3 34 91 743 946 913
0 0 0 3 0 0 17 0 2 0 0 0 2 0 0 0 0 0 0 0 0 0 0 0 86 71 23 8 4 1 1 0 0 1 10 16 20 35 75 266 651 631 762 603
0 0 0 1 4 0 0 1 5 0 10 0 0 0 0 0 0 0 0 0 0 0 0 0 1 3 113 93 44 12 0 0 0 7 8 9 6 61 182 280 530 726 559 629
0 0 0 0 5 1 0 1 9 6 0 0 0 0 0 0 0 0 0 0 0 0 0 0 0 0 0 10 0 0 0 0 0 1 1 3 73 22 160 158 356 534 624 205
0 0 0 0 0 0 0 0 0 0 0 0 0 0 0 0 1 0 0 0 0 0 0 0 0 0 0 0 0 0 0 0 0 0 0 4 9 18 53 156 296 238 429 274
0 0 0 0 1 0 2 0 0 0 0 0 0 0 0 0 0 0 0 0 0 0 0 0 0 0 0 0 0 0 0 0 0 0 0 13 5 6 45 34 34 34 58 97
0 0 0 0 0 0 0 0 0 0 0 0 0 0 0 0 0 0 0 0 0 0 0 0 0 0 0 0 0 0 0 0 0 0 0 0 0 0 5 21 13 6 1 20
0 0 0 0 0 0 0 0 0 0 0 0 0 0 0 0 0 0 0 0 0 0 0 0 0 0 0 0 0 0 0 0 0 0 0 0 0 6 15 5 6 2 7 0
0 0 0 0 0 0 0 0 0 0 0 0 0 0 0 0 0 0 0 0 0 0 0 0 0 0 0 0 0 0 0 0 0 0 0 0 0 0 0 1 15 3 1 2
0 0 0 0 0 0 0 0 0 0 0 0 0 0 0 0 0 0 0 0 0 0 0 0 0 0 0 0 0 0 0 0 0 0 0 0 0 0 0 0 0 0 0 0
0 1 0 0 0 0 0 0 0 0 0 0 0 0 0 0 0 0 0 0 0 0 0 0 0 0 0 0 0 0 0 0 0 0 0 0 0 0 0 0 0 0 0 0
0 0 0 0 0 0 0 0 0 0 0 0 0 0 0 0 0 0 0 0 0 0 0 0 0 0 0 0 0 0 0 0 0 0 0 0 0 0 0 0 0 0 0 0
0 0 0 0 0 0 0 0 0 0 0 0 0 0 0 0 0 0 0 0 0 0 0 0 0 0 0 0 0 0 0 0 0 0 0 0 0 0 0 0 0 0 0 0
0 0 0 0 0 0 0 0 0 0 0 0 0 0 0 0 0 0 0 0 0 0 0 0 0 0 0 0 0 0 0 0 0 0 0 0 0 0 0 0 0 0 0 0
0 0 0 0 0 0 0 0 0 0 0 0 0 0 0 0 0 0 0 0 0 0 0 0 0 0 0 0 0 0 0 0 0 0 0 0 0 0 0 0 0 0 0 0
0 0 0 0 0 0 0 0 0 0 0 0 0 0 0 0 0 0 0 0 0 0 0 0 0 0 0 0 0 0 0 0 0 0 0 0 0 0 0 0 0 0 0 0

GFSCGP_con_mucape_123.txt.gz
CAPE
0 0 0 0 0 0 0 0 0 0 0 0 0 0 0 0 0 0 0 0 0 0 0 0 0 0 0 0 421 1946 2221 1932 1609 1338 1492 1323 1220 1163 1051 915 944 986 1034 1127
0 0 0 0 0 0 0 0 0 0 0 0 0 0 0 0 0 0 0 0 0 0 0 0 0 0 0 0 5 998 1774 2410 1978 1768 1793 1691 1583 1402 1380 1110 969 1015 1068 1095
0 0 0 0 0 0 0 0 0 0 0 0 0 0 0 0 0 0 0 0 0 0 0 0 0 0 0 0 1 57 444 1788 2501 2365 2226 1868 1803 1683 1469 1402 1234 1057 995 1016
0 0 0 0 0 0 0 0 0 0 0 0 0 0 0 0 5 3 0 0 0 0 0 0 0 0 0 0 0 0 0 0 1125 2720 2430 2241 1901 1810 1794 1767 1666 1471 1118 1197
0 0 0 0 0 0 0 0 0 0 0 0 0 0 0 0 0 0 0 0 0 11 50 52 20 6 3 9 35 8 1 0 48 909 2231 2398 2349 2412 2171 1838 1900 1762 1563 1245
0 0 0 0 0 0 0 0 0 0 0 0 0 0 0 0 0 0 0 5 10 22 64 82 82 33 61 38 78 162 96 74 245 889 1230 1796 2030 1997 1991 1890 1550 1420 1331 1441
0 0 0 0 0 0 0 0 0 0 0 0 0 0 0 0 0 0 0 11 21 31 54 91 102 70 65 89 126 141 157 261 469 753 1004 1315 1596 1964 2061 1771 1728 1581 1473 1364
0 0 0 0 0 0 0 0 0 0 0 0 0 0 0 0 0 0 0 1 2 24 43 86 99 107 127 204 291 434 511 606 703 805 1143 1541 1438 1363 1476 1664 1500 1355 1247 1290
0 0 0 0 0 0 0 0 0 0 0 0 0 0 0 0 0 0 0 0 0 43 65 98 83 177 243 295 363 480 452 399 500 633 705 837 997 1069 1156 1228 1295 1137 961 1105
0 0 0 0 0 0 0 0 0 0 0 0 0 0 0 0 0 0 0 0 2 53 19 84 95 117 187 216 259 224 206 131 40 9 6 84 170 298 476 636 669 857 949 914
0 0 0 0 0 0 0 0 0 5 0 0 0 3 0 0 0 0 0 0 0 0 0 26 20 72 94 134 157 160 133 66 3 0 0 0 3 5 26 56 75 168 323 724
0 0 0 0 0 3 0 0 0 0 0 0 1 0 0 0 0 0 0 0 0 0 0 0 1 42 65 152 110 181 69 4 0 0 0 9 22 37 72 76 69 155 238 113
0 0 0 0 0 0 0 2 34 4 0 0 0 0 0 0 0 0 0 0 0 0 0 0 0 0 0 0 35 11 0 0 0 0 1 6 42 74 66 120 181 278 243 497
0 0 0 0 0 0 0 0 4 6 0 0 0 0 0 0 0 0 0 0 0 0 0 0 0 0 0 0 0 0 0 0 0 0 0 1 4 6 83 26 36 88 217 343
0 0 0 0 0 0 0 0 0 0 0 0 0 0 0 0 0 0 0 0 0 0 0 0 0 0 0 0 0 0 0 0 0 0 0 0 3 18 13 13 47 21 101 281
0 0 0 0 0 0 0 0 0 0 0 0 0 0 0 0 0 0 0 0 0 0 0 0 0 0 0 0 0 0 0 0 0 0 0 0 0 16 10 18 36 25 39 49
0 0 0 0 0 0 2 0 0 0 0 0 0 0 0 0 0 0 0 0 0 0 0 0 0 0 0 0 0 0 0 0 0 0 0 0 0 0 5 15 17 29 31 17
0 0 0 0 0 0 0 0 0 0 0 0 0 0 0 0 0 0 0 0 0 0 0 0 0 0 0 0 0 0 0 0 0 0 0 0 0 0 0 1 1 3 12 3
0 0 0 0 0 0 0 0 0 0 0 0 0 0 0 0 0 0 0 0 0 0 0 0 0 0 0 0 0 0 0 0 0 0 0 0 0 0 0 0 0 0 0 0
0 0 0 0 0 0 0 0 0 0 0 0 0 0 0 0 0 0 0 0 0 0 0 0 0 0 0 0 0 0 0 0 0 0 0 0 0 0 0 0 0 0 0 0
0 0 0 0 0 0 0 0 0 0 0 0 0 0 0 0 0 0 0 0 0 0 0 0 0 0 0 0 0 0 0 0 0 0 0 0 0 0 0 0 0 0 0 0
0 0 0 0 0 0 0 0 0 0 0 0 0 0 0 0 0 0 0 0 0 0 0 0 0 0 0 0 0 0 0 0 0 0 0 0 0 0 0 0 0 0 0 0
0 0 0 0 0 0 0 0 0 0 0 0 0 0 0 0 0 0 0 0 0 0 0 0 0 0 0 0 0 0 0 0 0 0 0 0 0 0 0 0 0 0 0 0
0 0 0 0 0 0 0 0 0 0 0 0 0 0 0 0 0 0 0 0 0 0 0 0 0 0 0 0 0 0 0 0 0 0 0 0 0 0 0 0 0 0 0 0
0 0 0 0 0 0 0 0 0 0 0 0 0 0 0 0 0 0 0 0 0 0 0 0 0 0 0 0 0 0 0 0 0 0 0 0 0 0 0 0 0 0 0 0
0 0 0 0 0 0 0 0 0 0 0 0 0 0 0 0 0 0 0 0 0 0 0 0 0 0 0 0 0 0 0 0 0 0 0 0 0 0 0 0 0 0 0 0

GFSCGP_con_mucape_126.txt.gz
CAPE
0 0 0 0 0 0 0 0 0 0 0 0 0 0 0 0 0 0 0 0 0 0 0 0 0 0 0 0 0 0 50 1850 2403 1991 1759 1758 1767 1900 1609 1640 1552 1603 1225 1772
0 0 0 0 0 0 0 0 0 0 0 0 0 0 0 0 15 19 0 1 5 2 0 0 0 3 1 0 0 0 119 982 2452 2242 1791 1703 1785 1648 1705 1720 1661 1675 1751 1513
0 0 0 0 0 0 0 0 0 0 0 0 0 0 0 0 27 0 3 0 0 0 0 1 7 2 2 1 0 0 10 1474 2312 2510 2355 1846 1750 1808 1854 1917 1819 1751 1703 1789
0 0 0 0 0 0 0 0 0 0 0 0 0 0 1 0 5 0 0 0 0 0 0 0 0 3 0 0 0 0 10 284 1839 2275 2297 2464 2358 2436 2515 2472 2277 1996 1737 1686
0 0 0 0 0 0 0 0 0 0 0 0 0 0 44 0 0 0 0 0 0 0 0 0 0 0 2 1 0 0 0 0 1217 1959 1728 1813 2485 2623 2740 2465 2296 2066 1701 1707
0 0 0 0 0 0 0 0 0 0 3 0 0 0 0 0 0 0 0 0 0 0 0 0 2 61 94 105 66 0 2 0 0 1118 1432 1462 1753 2669 2475 2671 2413 2315 1851 1646
0 0 0 0 0 0 0 0 0 0 52 0 0 0 0 0 0 0 0 0 0 0 0 0 7 36 42 93 161 159 94 65 130 287 914 1851 1893 1764 1809 1745 2035 1957 1825 1706
0 0 0 0 0 0 0 0 0 0 0 4 0 35 0 0 0 0 0 0 0 0 0 13 22 98 51 107 120 189 159 213 310 483 743 897 1157 1308 1359 1920 1463 1488 1355 1610
0 0 0 0 0 0 3 0 0 0 4 17 51 0 0 0 0 0 0 0 0 0 0 5 96 217 107 96 144 285 145 219 311 424 601 896 752 896 953 921 945 794 973 1189
0 0 0 0 0 0 0 0 8 38 0 8 93 0 0 0 0 0 0 0 0 0 0 0 78 205 245 116 165 300 331 202 173 190 480 630 574 545 463 304 331 353 596 642
0 0 2 2 8 0 43 0 0 30 41 9 73 0 0 0 0 0 0 0 0 0 0 0 82 125 98 70 122 263 280 221 168 103 28 75 66 36 5 1 0 0 0 54
4 39 0 0 3 23 0 0 11 14 55 52 78 0 0 0 0 0 0 0 0 0 0 0 0 0 12 57 120 194 197 206 128 47 19 5 16 8 0 0 0 0 16 128
26 10 3 0 24 0 0 0 65 58 74 106 32 0 0 0 0 0 0 0 0 0 0 0 0 0 0 0 54 105 96 75 11 4 6 3 0 13 18 27 45 88 106 146
2 0 0 0 0 0 0 0 0 8 240 11 0 0 0 0 0 0 0 0 0 0 0 0 0 0 0 0 0 4 51 0 2 0 0 3 8 27 33 26 93 127 175 348
13 13 0 0 0 0 0 0 0 0 0 0 0 0 0 0 0 0 0 0 0 0 0 0 0 0 0 0 0 0 0 0 0 0 0 1 6 10 14 60 20 22 93 95
0 18 0 0 0 0 0 0 0 0 0 0 0 0 0 0 0 0 0 0 0 0 0 0 0 0 0 0 0 0 0 0 0 0 0 0 0 0 11 13 11 22 7 8
8 0 0 55 0 0 0 0 0 0 0 0 0 0 0 0 0 0 0 0 0 0 0 0 0 0 0 0 0 0 0 0 0 0 0 0 0 0 0 0 0 3 1 2
0 0 0 28 0 0 0 0 0 0 0 0 0 0 0 0 0 0 0 0 0 0 0 0 0 0 0 0 0 0 0 0 0 0 0 0 0 0 0 0 0 0 0 0
0 0 31 46 0 0 0 0 0 0 0 0 0 0 0 0 0 0 0 0 0 0 0 0 0 0 0 0 0 0 0 0 0 0 0 0 0 0 0 0 0 0 0 0
0 0 0 0 0 0 0 0 0 0 0 0 0 0 0 0 0 0 0 0 0 0 0 0 0 0 0 0 0 0 0 0 0 0 0 0 0 0 0 0 0 0 0 0
0 0 16 0 0 0 0 0 0 0 0 0 0 0 0 0 0 0 0 0 0 0 0 0 0 0 0 0 0 0 0 0 0 0 0 0 0 0 0 0 0 0 0 0
0 5 2 0 0 0 0 0 0 0 0 0 0 0 0 0 0 0 0 0 0 0 0 0 0 0 0 0 0 0 0 0 0 0 0 0 0 0 0 0 0 0 0 0
0 0 0 0 0 0 0 0 0 0 0 0 0 0 0 0 0 0 0 0 0 0 0 0 0 0 0 0 0 0 0 0 0 0 0 0 0 0 0 0 0 0 0 0
0 0 0 0 0 0 0 0 0 0 0 0 0 0 0 0 0 0 0 0 0 0 0 0 0 0 0 0 0 0 0 0 0 0 0 0 0 0 0 0 0 0 0 0
4 0 0 0 0 0 0 0 0 0 0 0 0 0 0 0 0 0 0 0 0 0 0 0 0 0 0 0 0 0 0 0 0 0 0 0 0 0 0 0 0 0 0 0
1 0 0 0 0 0 0 0 0 0 0 0 0 0 0 0 0 0 0 0 0 0 0 0 0 0 0 0 0 0 0 0 0 0 0 0 0 0 0 0 0 0 0 0

GFSCGP_con_mucape_129.txt.gz
CAPE
0 0 0 0 0 0 0 0 0 0 0 0 0 0 0 0 0 0 0 0 0 0 0 0 0 0 0 1 0 0 0 0 66 2556 2522 2702 2406 2439 2417 2190 1943 2261 2237 2179
0 0 0 0 0 0 0 0 0 0 0 0 0 0 0 1 11 0 0 0 0 0 0 0 0 1 10 13 19 1 0 0 0 1716 2591 2493 2586 2389 2371 2079 2021 1938 2173 2448
0 0 0 0 0 0 0 0 0 0 0 0 0 0 0 0 17 0 0 0 0 0 0 0 0 0 0 0 0 3 4 0 0 184 2061 2268 2775 2476 2346 2064 1990 2234 2363 2172
0 0 0 0 0 0 0 0 0 0 0 0 0 0 15 0 0 0 0 0 0 0 0 0 0 0 0 0 0 0 3 11 4 81 888 2125 1935 2182 2040 1868 1909 1910 2355 2240
0 0 0 0 0 0 0 0 0 0 0 0 0 0 37 0 0 0 0 0 0 0 0 0 0 0 0 0 2 2 0 0 0 86 991 1832 1659 2234 1908 1848 1864 2341 2533 2421
0 0 0 0 0 0 0 0 0 0 0 0 12 8 31 0 0 0 0 0 0 0 0 0 0 0 0 2 2 44 25 3 0 1 978 1092 1946 1366 1359 1333 1753 2326 2135 2077
0 0 0 0 0 0 0 4 0 0 0 0 23 14 0 0 0 0 0 0 0 0 0 0 0 3 14 35 136 207 195 114 12 2 751 1090 1037 1057 737 383 0 1497 1986 1923
0 0 0 0 0 0 0 5 0 0 0 32 26 94 0 0 0 0 0 0 0 0 0 0 0 28 143 138 191 243 258 340 202 1 247 755 984 964 724 140 58 974 1786 1794
0 0 0 0 0 0 7 6 14 3 1 35 67 0 0 0 0 0 0 0 0 0 0 0 0 19 0 174 244 224 168 341 393 341 58 752 690 412 168 47 489 768 1392 1342
0 0 0 2 0 1 3 12 27 14 0 74 148 8 11 0 0 0 0 0 0 0 0 0 0 0 15 77 200 244 197 341 292 350 404 503 556 537 691 714 653 496 710 637
3 0 0 6 16 24 32 21 19 40 50 101 181 17 0 0 0 0 0 0 0 0 0 0 0 0 0 0 79 199 185 60 120 107 88 91 111 127 192 132 29 36 10 0
8 14 0 20 11 16 13 16 30 71 85 141 239 15 0 0 0 0 0 0 0 0 0 0 0 0 0 0 76 194 249 224 27 86 27 16 6 6 0 13 0 0 0 4
18 0 25 1 35 6 1 0 0 8 215 184 275 0 0 0 0 0 0 0 0 0 0 0 0 0 0 0 0 0 44 250 162 67 30 3 0 1 0 8 2 9 21 21
4 14 0 17 0 0 0 0 0 0 57 190 8 0 0 0 0 0 0 0 0 0 0 0 0 0 0 0 0 0 0 1 50 117 127 71 59 15 8 0 0 2 18 16
17 0 0 0 0 0 0 0 0 0 0 13 0 0 0 0 0 0 0 0 0 0 0 0 0 0 0 0 0 0 0 0 0 0 7 7 1 0 0 6 13 20 2 13
25 0 0 0 0 0 0 0 0 0 0 0 0 0 0 0 0 0 0 0 0 0 0 0 0 0 0 0 0 0 0 0 0 0 0 0 0 0 0 0 12 2 1 3
8 41 0 16 0 0 0 0 0 0 0 0 0 0 0 0 0 0 0 0 0 0 0 0 0 0 0 0 0 0 0 0 0 0 0 0 0 0 0 0 0 0 0 0
38 28 16 71 15 0 0 0 0 0 0 0 0 0 0 0 0 0 0 0 0 0 0 0 0 0 0 0 0 0 0 0 0 0 0 0 0 0 0 0 0 0 0 0
16 30 46 44 46 0 0 0 0 0 0 0 0 0 0 0 0 0 0 0 0 0 0 0 0 0 0 0 0 0 0 0 0 0 0 0 0 0 0 0 0 0 0 0
22 14 54 52 0 4 0 0 0 0 0 0 0 0 0 0 0 0 0 0 0 0 0 0 0 0 0 0 0 0 0 0 0 0 0 0 0 0 0 0 0 0 0 0
0 15 3 66 55 0 0 0 0 0 0 0 0 0 0 0 0 0 0 0 0 0 0 0 0 0 0 0 0 0 0 0 0 0 0 0 0 0 0 0 0 0 0 0
0 0 0 11 16 6 0 0 0 0 0 0 0 0 0 0 0 0 0 0 0 0 0 0 0 0 0 0 0 0 0 0 0 0 0 0 0 0 0 0 0 0 0 0
0 1 22 0 5 0 0 0 0 0 0 0 0 0 0 0 0 0 0 0 0 0 0 0 0 0 0 0 0 0 0 0 0 0 0 0 0 0 0 0 0 0 0 0
1 0 4 0 0 0 0 0 0 0 0 0 0 0 0 0 0 0 0 0 0 0 0 0 0 0 0 0 0 0 0 0 0 0 0 0 0 0 0 0 0 0 0 0
15 4 0 0 0 0 0 0 0 0 0 0 0 0 0 0 0 0 0 0 0 0 0 0 0 0 0 0 0 0 0 0 0 0 0 0 0 0 0 0 0 0 0 0
0 4 9 43 0 0 0 0 0 0 0 0 0 0 0 0 0 0 0 0 0 0 0 0 0 0 0 0 0 0 0 0 0 0 0 0 0 0 0 0 0 0 0 0

GFSCGP_con_mucape_132.txt.gz
CAPE
0 0 0 0 0 0 0 0 0 0 0 0 0 0 0 0 0 0 0 0 0 0 0 0 0 0 0 0 0 0 0 0 0 0 0 912 1508 1588 1608 1645 1866 2066 1896 1684
0 0 0 0 0 0 0 0 0 0 0 0 0 0 0 0 0 0 0 0 0 0 0 0 0 0 0 0 0 0 0 0 0 0 0 248 787 1347 1539 1698 1591 1704 2157 1767
0 0 0 0 0 0 0 0 0 0 0 0 0 0 0 0 0 0 0 0 0 0 0 0 0 0 0 0 0 0 0 0 0 0 0 33 856 858 1335 1567 1473 1618 1897 2046
0 0 0 0 0 0 0 0 0 0 0 0 0 0 0 0 0 0 0 0 0 0 0 0 0 0 0 0 0 0 0 0 0 0 0 0 766 1042 1039 1396 1477 1351 1423 1876
0 0 0 0 0 0 0 0 0 0 0 0 0 0 0 0 0 0 0 0 0 0 0 0 0 0 0 0 0 0 0 0 0 0 1 0 15 221 748 1221 1310 1343 1232 1394
0 0 0 0 0 0 0 0 0 0 0 0 0 0 0 0 0 0 0 0 0 0 0 0 0 0 0 0 2 0 0 2 0 0 0 2 0 274 704 929 1146 1139 1443 1596
0 0 0 0 0 0 0 0 0 0 0 0 0 0 0 0 0 0 0 0 0 0 0 0 0 0 0 0 4 1 1 1 2 3 0 4 4 88 535 681 85 215 669 1055
0 0 0 0 0 0 0 0 0 0 0 0 0 0 0 0 0 0 0 0 0 0 0 0 0 0 0 0 0 18 74 90 83 89 20 6 15 89 469 331 111 35 404 75
0 0 0 0 0 0 0 0 3 0 0 0 0 0 0 0 0 0 0 0 0 0 0 0 0 0 0 0 0 17 33 67 86 71 114 119 109 222 501 478 230 40 9 1
3 0 0 0 0 0 0 1 0 9 0 0 8 38 16 0 0 0 0 0 0 0 0 0 0 0 0 0 0 0 0 0 31 145 153 177 196 133 272 280 53 6 14 47
7 0 0 0 0 0 0 0 3 9 39 0 0 0 0 0 0 0 0 0 0 0 0 0 0 0 0 0 0 0 0 0 0 0 170 167 182 172 251 164 249 66 9 22
16 16 0 1 17 33 14 25 35 13 1 83 128 0 0 0 0 0 0 0 0 0 0 0 0 0 0 0 0 0 0 4 2 1 88 162 138 101 92 5 0 0 0 11
10 3 0 0 19 0 7 21 6 9 10 7 40 0 0 0 0 0 0 0 0 0 0 0 0 0 0 0 0 0 0 0 2 1 6 71 58 46 20 9 5 0 1 0
15 3 14 0 0 0 0 0 0 0 13 41 0 0 0 0 0 0 0 0 0 0 0 0 0 0 0 0 0 0 0 0 0 0 3 19 14 12 12 8 3 1 0 0
4 0 4 2 0 0 0 0 0 0 0 2 0 0 0 0 0 0 0 0 0 0 0 0 0 0 0 0 0 0 0 0 0 0 0 0 0 2 6 2 1 1 0 5
18 13 0 0 0 0 0 0 0 0 0 0 0 0 0 0 0 0 0 0 0 0 0 0 0 0 0 0 0 0 0 0 0 0 0 0 0 0 0 0 0 0 0 0
29 36 0 0 0 0 0 0 0 0 0 0 0 0 0 0 0 0 0 0 0 0 0 0 0 0 0 0 0 0 0 0 0 0 0 0 0 0 0 0 0 0 0 0
41 36 39 0 0 0 0 0 0 0 0 0 0 0 0 0 0 0 0 0 0 0 0 0 0 0 0 0 0 0 0 0 0 0 0 0 0 0 0 0 0 0 0 0
15 27 0 0 0 0 0 0 0 0 0 0 0 0 0 0 0 0 0 0 0 0 0 0 0 0 0 0 0 0 0 0 0 0 0 0 0 0 0 0 0 0 0 0
7 16 8 67 0 0 0 0 0 0 0 0 0 0 0 0 0 0 0 0 0 0 0 0 0 0 0 0 0 0 0 0 0 0 0 0 0 0 0 0 0 0 0 0
0 14 0 0 0 1 0 0 0 0 0 0 0 0 0 0 0 0 0 0 0 0 0 0 0 0 0 0 0 0 0 0 0 0 0 0 0 0 0 0 0 0 0 0
0 0 0 0 0 0 0 0 0 0 0 0 0 0 0 0 0 0 0 0 0 0 0 0 0 0 0 0 0 0 0 0 0 0 0 0 0 0 0 0 0 0 0 0
0 0 0 0 0 0 0 0 0 0 0 0 0 0 0 0 0 0 0 0 0 0 0 0 0 0 0 0 0 0 0 0 0 0 0 0 0 0 0 0 0 0 0 0
0 0 1 0 0 0 0 0 0 0 0 0 0 0 0 0 0 0 0 0 0 0 0 0 0 0 0 0 0 0 0 0 0 0 0 0 0 0 0 0 0 0 0 0
2 0 0 0 0 0 0 0 0 0 0 0 0 0 0 0 0 0 0 0 0 0 0 0 0 0 0 0 0 0 0 0 0 0 0 0 0 0 0 0 0 0 0 0
5 0 0 5 0 0 0 0 0 0 0 0 0 0 0 0 0 0 0 0 0 0 0 0 0 0 0 0 0 0 0 0 0 0 0 0 0 0 0 0 0 0 0 0